Time,TemperatureF,DewpointF,PressureIn,WindDirection,WindDirectionDegrees,WindSpeedMPH,WindSpeedGustMPH,Humidity,HourlyPrecipIn,Conditions,Clouds,dailyrainin,SoftwareType,DateUTC
2013-03-06 00:00:00,49.3,39.9,29.86,ENE,78,19.6,19.6,70,0.00,RA,,0.00,WeatherDisplay:10.37,2013-03-06 08:00:00,
2013-03-06 00:03:00,49.2,39.8,29.86,ENE,75,13.0,13.0,70,0.00,RA,,0.00,WeatherDisplay:10.37,2013-03-06 08:03:00,
2013-03-06 00:04:00,49.2,39.8,29.86,ENE,64,12.7,12.7,70,0.00,RA,,0.00,WeatherDisplay:10.37,2013-03-06 08:04:00,
2013-03-06 00:05:00,49.2,39.8,29.86,ENE,78,21.9,21.9,70,0.00,RA,,0.00,WeatherDisplay:10.37,2013-03-06 08:05:00,
2013-03-06 00:09:00,49.2,39.5,29.87,ENE,65,17.3,17.3,69,0.00,RA,,0.00,WeatherDisplay:10.37,2013-03-06 08:09:00,
2013-03-06 00:10:00,49.2,39.5,29.87,ESE,108,17.3,17.3,69,0.00,SCT,,0.00,WeatherDisplay:10.37,2013-03-06 08:10:00,
2013-03-06 00:15:00,49.2,39.5,29.87,ESE,119,17.3,17.3,69,0.00,SCT,,0.00,WeatherDisplay:10.37,2013-03-06 08:15:00,
2013-03-06 00:16:00,49.2,39.5,29.87,ESE,107,17.3,17.3,69,0.00,SCT,,0.00,WeatherDisplay:10.37,2013-03-06 08:16:00,
2013-03-06 00:20:00,49.2,40.2,29.88,ENE,75,13.8,13.8,71,0.00,SCT,,0.00,WeatherDisplay:10.37,2013-03-06 08:20:00,
2013-03-06 00:21:00,49.2,40.2,29.88,ENE,75,13.8,13.8,71,0.00,SCT,,0.00,WeatherDisplay:10.37,2013-03-06 08:21:00,
2013-03-06 00:26:00,49.1,40.1,29.88,ENE,71,11.5,11.5,71,0.00,SCT,,0.00,WeatherDisplay:10.37,2013-03-06 08:26:00,
2013-03-06 00:27:00,49.1,40.1,29.88,East,100,14.0,14.0,71,0.00,SCT,,0.00,WeatherDisplay:10.37,2013-03-06 08:27:00,
2013-03-06 00:31:00,48.9,40.6,29.88,East,80,17.3,17.3,73,0.01,RA,,0.01,WeatherDisplay:10.37,2013-03-06 08:31:00,
2013-03-06 00:32:00,48.9,40.6,29.88,ESE,119,11.5,11.5,73,0.01,RA,,0.01,WeatherDisplay:10.37,2013-03-06 08:32:00,
2013-03-06 00:36:00,48.7,40.4,29.88,ESE,114,11.5,11.5,73,0.01,RA,,0.01,WeatherDisplay:10.37,2013-03-06 08:36:00,
2013-03-06 00:37:00,48.7,40.4,29.88,SSE,157,16.1,16.1,73,0.01,RA,,0.01,WeatherDisplay:10.37,2013-03-06 08:37:00,
2013-03-06 00:38:00,48.7,40.4,29.88,East,84,23.0,23.0,73,0.01,RA,,0.01,WeatherDisplay:10.37,2013-03-06 08:38:00,
2013-03-06 00:41:00,48.6,40.7,29.88,ESE,116,12.7,12.7,74,0.01,SCT,,0.01,WeatherDisplay:10.37,2013-03-06 08:41:00,
2013-03-06 00:42:00,48.6,40.3,29.88,East,101,11.5,11.5,73,0.01,SCT,,0.01,WeatherDisplay:10.37,2013-03-06 08:42:00,
2013-03-06 00:44:00,48.6,40.7,29.89,ESE,105,19.6,19.6,74,0.01,SCT,,0.01,WeatherDisplay:10.37,2013-03-06 08:44:00,
2013-03-06 00:46:00,48.6,40.7,29.89,East,100,9.2,9.2,74,0.01,SCT,,0.01,WeatherDisplay:10.37,2013-03-06 08:46:00,
2013-03-06 00:47:00,48.6,40.7,29.89,ESE,118,12.0,12.0,74,0.01,SCT,,0.01,WeatherDisplay:10.37,2013-03-06 08:47:00,
2013-03-06 00:48:00,48.6,40.7,29.88,ENE,68,10.0,10.0,74,0.01,SCT,,0.01,WeatherDisplay:10.37,2013-03-06 08:48:00,
2013-03-06 00:49:00,48.5,40.2,29.88,ESE,107,16.1,16.1,73,0.01,SCT,,0.01,WeatherDisplay:10.37,2013-03-06 08:49:00,
2013-03-06 00:53:00,48.5,40.2,29.88,East,82,19.6,19.6,73,0.01,SCT,,0.01,WeatherDisplay:10.37,2013-03-06 08:53:00,
2013-03-06 00:55:00,48.5,40.3,29.88,East,87,7.0,20.0,73,0.00,SCT,,0.01,WeatherDisplay:10.37,2013-03-06 08:55:00,
2013-03-06 00:58:00,48.5,40.6,29.88,SE,130,12.7,12.7,74,0.01,SCT,,0.01,WeatherDisplay:10.37,2013-03-06 08:58:00,
2013-03-06 01:01:00,48.5,40.6,29.88,ESE,105,9.2,9.2,74,0.01,SCT,,0.01,WeatherDisplay:10.37,2013-03-06 09:01:00,
2013-03-06 01:03:00,48.5,40.6,29.88,ESE,111,11.5,11.5,74,0.01,SCT,,0.01,WeatherDisplay:10.37,2013-03-06 09:03:00,
2013-03-06 01:04:00,48.5,40.6,29.89,ENE,76,11.5,11.5,74,0.01,SCT,,0.01,WeatherDisplay:10.37,2013-03-06 09:04:00,
2013-03-06 01:06:00,48.5,40.6,29.89,ESE,108,8.1,8.1,74,0.01,SCT,,0.01,WeatherDisplay:10.37,2013-03-06 09:06:00,
2013-03-06 01:08:00,48.5,40.6,29.88,ESE,113,8.0,8.0,74,0.01,SCT,,0.01,WeatherDisplay:10.37,2013-03-06 09:08:00,
2013-03-06 01:09:00,48.5,40.6,29.88,ENE,70,8.1,8.1,74,0.01,SCT,,0.01,WeatherDisplay:10.37,2013-03-06 09:09:00,
2013-03-06 01:11:00,48.5,40.6,29.89,East,80,10.4,10.4,74,0.01,SCT,,0.01,WeatherDisplay:10.37,2013-03-06 09:11:00,
2013-03-06 01:13:00,48.5,40.6,29.89,NE,56,9.2,9.2,74,0.01,SCT,,0.01,WeatherDisplay:10.37,2013-03-06 09:13:00,
2013-03-06 01:14:00,48.5,40.9,29.89,SE,129,12.7,12.7,75,0.01,SCT,,0.01,WeatherDisplay:10.37,2013-03-06 09:14:00,
2013-03-06 01:17:00,48.5,40.9,29.89,ESE,111,11.5,11.5,75,0.01,SCT,,0.01,WeatherDisplay:10.37,2013-03-06 09:17:00,
2013-03-06 01:18:00,48.5,40.9,29.89,SE,124,13.8,13.8,75,0.01,SCT,,0.01,WeatherDisplay:10.37,2013-03-06 09:18:00,
2013-03-06 01:19:00,48.5,40.9,29.89,East,100,11.5,11.5,75,0.01,SCT,,0.01,WeatherDisplay:10.37,2013-03-06 09:19:00,
2013-03-06 01:20:00,48.5,40.9,29.89,East,98,11.5,11.5,75,0.01,SCT,,0.01,WeatherDisplay:10.37,2013-03-06 09:20:00,
2013-03-06 01:22:00,48.5,40.9,29.89,East,88,11.5,11.5,75,0.01,SCT,,0.01,WeatherDisplay:10.37,2013-03-06 09:22:00,
2013-03-06 01:23:00,48.5,40.9,29.89,East,90,6.9,6.9,75,0.01,SCT,,0.01,WeatherDisplay:10.37,2013-03-06 09:23:00,
2013-03-06 01:25:00,48.5,40.9,29.89,East,98,10.4,10.4,75,0.01,SCT,,0.01,WeatherDisplay:10.37,2013-03-06 09:25:00,
2013-03-06 01:26:00,48.5,40.9,29.89,ENE,68,11.5,11.5,75,0.01,SCT,,0.01,WeatherDisplay:10.37,2013-03-06 09:26:00,
2013-03-06 01:27:00,48.5,40.9,29.89,NE,48,11.5,11.5,75,0.01,SCT,,0.01,WeatherDisplay:10.37,2013-03-06 09:27:00,
2013-03-06 01:28:00,48.5,40.9,29.89,East,94,8.1,8.1,75,0.01,SCT,,0.01,WeatherDisplay:10.37,2013-03-06 09:28:00,
2013-03-06 01:30:00,48.5,40.9,29.89,East,89,10.4,10.4,75,0.01,SCT,,0.01,WeatherDisplay:10.37,2013-03-06 09:30:00,
2013-03-06 01:31:00,48.5,40.9,29.89,ENE,64,12.7,12.7,75,0.00,SCT,,0.01,WeatherDisplay:10.37,2013-03-06 09:31:00,
2013-03-06 01:33:00,48.5,40.9,29.89,ESE,117,15.0,15.0,75,0.00,SCT,,0.01,WeatherDisplay:10.37,2013-03-06 09:33:00,
2013-03-06 01:35:00,48.5,41.3,29.89,East,99,10.4,10.4,76,0.00,SCT,,0.02,WeatherDisplay:10.37,2013-03-06 09:35:00,
2013-03-06 01:38:00,48.5,41.3,29.89,ENE,71,6.0,6.0,76,0.01,RA,,0.02,WeatherDisplay:10.37,2013-03-06 09:38:00,
2013-03-06 01:40:00,48.5,41.3,29.89,East,91,11.5,11.5,76,0.01,RA,,0.02,WeatherDisplay:10.37,2013-03-06 09:40:00,
2013-03-06 01:41:00,48.5,41.3,29.89,ENE,65,8.1,8.1,76,0.01,RA,,0.02,WeatherDisplay:10.37,2013-03-06 09:41:00,
2013-03-06 01:43:00,48.5,41.3,29.89,ENE,66,10.4,10.4,76,0.01,RA,,0.02,WeatherDisplay:10.37,2013-03-06 09:43:00,
2013-03-06 01:44:00,48.5,41.3,29.89,ENE,69,12.7,12.7,76,0.01,RA,,0.02,WeatherDisplay:10.37,2013-03-06 09:44:00,
2013-03-06 01:45:00,48.5,41.3,29.89,NE,42,12.7,12.7,76,0.01,SCT,,0.02,WeatherDisplay:10.37,2013-03-06 09:45:00,
2013-03-06 01:47:00,48.5,41.3,29.89,ENE,77,5.8,5.8,76,0.01,SCT,,0.02,WeatherDisplay:10.37,2013-03-06 09:47:00,
2013-03-06 01:49:00,48.5,41.3,29.89,NE,42,12.7,12.7,76,0.01,SCT,,0.02,WeatherDisplay:10.37,2013-03-06 09:49:00,
2013-03-06 01:50:00,48.4,41.2,29.89,SE,131,8.1,8.1,76,0.01,SCT,,0.02,WeatherDisplay:10.37,2013-03-06 09:50:00,
2013-03-06 01:51:00,48.5,41.3,29.89,ENE,77,10.0,10.0,76,0.01,SCT,,0.02,WeatherDisplay:10.37,2013-03-06 09:51:00,
2013-03-06 01:52:00,48.5,41.3,29.89,ENE,77,16.1,16.1,76,0.01,SCT,,0.02,WeatherDisplay:10.37,2013-03-06 09:52:00,
2013-03-06 01:55:00,48.4,41.5,29.89,ENE,69,6.9,6.9,77,0.01,SCT,,0.02,WeatherDisplay:10.37,2013-03-06 09:55:00,
2013-03-06 01:56:00,48.5,41.6,29.89,East,96,8.1,8.1,77,0.01,SCT,,0.02,WeatherDisplay:10.37,2013-03-06 09:56:00,
2013-03-06 01:57:00,48.4,41.5,29.89,NE,52,12.7,12.7,77,0.01,SCT,,0.02,WeatherDisplay:10.37,2013-03-06 09:57:00,
2013-03-06 02:00:00,48.5,42.0,29.89,East,89,19.6,19.6,78,0.01,SCT,,0.02,WeatherDisplay:10.37,2013-03-06 10:00:00,
2013-03-06 02:02:00,48.4,41.9,29.89,ESE,111,10.0,10.0,78,0.01,SCT,,0.02,WeatherDisplay:10.37,2013-03-06 10:02:00,
2013-03-06 02:06:00,48.4,41.9,29.89,East,85,8.1,8.1,78,0.01,SCT,,0.02,WeatherDisplay:10.37,2013-03-06 10:06:00,
2013-03-06 02:07:00,48.4,41.9,29.90,ESE,106,11.0,11.0,78,0.01,SCT,,0.03,WeatherDisplay:10.37,2013-03-06 10:07:00,
2013-03-06 02:08:00,48.4,41.9,29.90,NE,50,11.5,11.5,78,0.02,RA,,0.03,WeatherDisplay:10.37,2013-03-06 10:08:00,
2013-03-06 02:11:00,48.4,42.2,29.90,NNE,21,10.4,10.4,79,0.02,RA,,0.03,WeatherDisplay:10.37,2013-03-06 10:11:00,
2013-03-06 02:12:00,48.4,42.2,29.90,ESE,104,6.9,6.9,79,0.03,RA,,0.04,WeatherDisplay:10.37,2013-03-06 10:12:00,
2013-03-06 02:13:00,48.4,42.2,29.90,ENE,69,8.1,8.1,79,0.03,RA,,0.04,WeatherDisplay:10.37,2013-03-06 10:13:00,
2013-03-06 02:14:00,48.4,42.5,29.90,ENE,63,8.1,8.1,80,0.03,RA,,0.05,WeatherDisplay:10.37,2013-03-06 10:14:00,
2013-03-06 02:17:00,48.3,42.4,29.90,ESE,114,6.9,6.9,80,0.04,RA,,0.05,WeatherDisplay:10.37,2013-03-06 10:17:00,
2013-03-06 02:18:00,48.3,42.4,29.90,ESE,110,5.8,5.8,80,0.04,RA,,0.06,WeatherDisplay:10.37,2013-03-06 10:18:00,
2013-03-06 02:19:00,48.4,42.5,29.90,ENE,69,5.8,5.8,80,0.05,RA,,0.06,WeatherDisplay:10.37,2013-03-06 10:19:00,
2013-03-06 02:23:00,48.4,42.5,29.90,South,169,12.7,12.7,80,0.06,RA,,0.07,WeatherDisplay:10.37,2013-03-06 10:23:00,
2013-03-06 02:24:00,48.4,42.8,29.90,East,82,10.4,10.4,81,0.06,RA,,0.07,WeatherDisplay:10.37,2013-03-06 10:24:00,
2013-03-06 02:25:00,48.4,42.8,29.90,ESE,109,11.5,11.5,81,0.06,RA,,0.07,WeatherDisplay:10.37,2013-03-06 10:25:00,
2013-03-06 02:29:00,48.4,42.8,29.90,East,83,4.6,4.6,81,0.06,RA,,0.07,WeatherDisplay:10.37,2013-03-06 10:29:00,
2013-03-06 02:30:00,48.4,42.8,29.90,ENE,66,17.3,17.3,81,0.06,RA,,0.07,WeatherDisplay:10.37,2013-03-06 10:30:00,
2013-03-06 02:35:00,48.4,42.8,29.90,NE,51,6.0,6.0,81,0.05,SCT,,0.07,WeatherDisplay:10.37,2013-03-06 10:35:00,
2013-03-06 02:36:00,48.4,42.8,29.90,ESE,123,5.8,5.8,81,0.05,SCT,,0.07,WeatherDisplay:10.37,2013-03-06 10:36:00,
2013-03-06 02:40:00,48.4,42.8,29.91,ESE,104,6.9,6.9,81,0.06,RA,,0.09,WeatherDisplay:10.37,2013-03-06 10:40:00,
2013-03-06 02:41:00,48.4,43.2,29.91,ESE,112,6.9,6.9,82,0.07,RA,,0.09,WeatherDisplay:10.37,2013-03-06 10:41:00,
2013-03-06 02:43:00,48.4,42.8,29.91,East,82,10.4,10.4,81,0.08,RA,,0.10,WeatherDisplay:10.37,2013-03-06 10:43:00,
2013-03-06 02:45:00,48.4,42.5,29.92,ESE,113,9.2,9.2,80,0.08,RA,,0.10,WeatherDisplay:10.37,2013-03-06 10:45:00,
2013-03-06 02:46:00,48.4,42.5,29.91,SE,134,15.0,15.0,80,0.08,RA,,0.10,WeatherDisplay:10.37,2013-03-06 10:46:00,
2013-03-06 02:47:00,48.4,42.5,29.92,SSW,203,8.0,8.0,80,0.08,RA,,0.10,WeatherDisplay:10.37,2013-03-06 10:47:00,
2013-03-06 02:49:00,48.5,42.9,29.91,ENE,77,7.0,7.0,81,0.09,RA,,0.11,WeatherDisplay:10.37,2013-03-06 10:49:00,
2013-03-06 02:51:00,48.5,42.6,29.92,East,96,14.0,14.0,80,0.09,RA,,0.11,WeatherDisplay:10.37,2013-03-06 10:51:00,
2013-03-06 02:52:00,48.5,42.6,29.91,ENE,66,13.8,13.8,80,0.09,RA,,0.11,WeatherDisplay:10.37,2013-03-06 10:52:00,
2013-03-06 02:54:00,48.5,42.6,29.92,ESE,103,9.2,9.2,80,0.09,RA,,0.11,WeatherDisplay:10.37,2013-03-06 10:54:00,
2013-03-06 02:56:00,48.4,42.5,29.92,ENE,78,5.8,5.8,80,0.09,RA,,0.12,WeatherDisplay:10.37,2013-03-06 10:56:00,
2013-03-06 02:59:00,48.3,42.1,29.92,ESE,116,8.1,8.1,79,0.10,RA,,0.12,WeatherDisplay:10.37,2013-03-06 10:59:00,
2013-03-06 03:00:00,48.3,42.4,29.92,ESE,106,5.8,5.8,80,0.10,RA,,0.12,WeatherDisplay:10.37,2013-03-06 11:00:00,
2013-03-06 03:01:00,48.4,42.2,29.92,ESE,104,5.8,5.8,79,0.10,RA,,0.12,WeatherDisplay:10.37,2013-03-06 11:01:00,
2013-03-06 03:04:00,48.3,42.4,29.92,SE,128,10.4,10.4,80,0.10,RA,,0.12,WeatherDisplay:10.37,2013-03-06 11:04:00,
2013-03-06 03:05:00,48.3,42.4,29.92,East,97,6.0,6.0,80,0.10,RA,,0.12,WeatherDisplay:10.37,2013-03-06 11:05:00,
2013-03-06 03:06:00,48.3,42.1,29.92,SE,146,6.9,6.9,79,0.10,SCT,,0.12,WeatherDisplay:10.37,2013-03-06 11:06:00,
2013-03-06 03:10:00,48.2,42.3,29.91,ESE,109,6.0,6.0,80,0.10,RA,,0.13,WeatherDisplay:10.37,2013-03-06 11:10:00,
2013-03-06 03:11:00,48.2,42.0,29.91,ESE,119,5.8,5.8,79,0.10,RA,,0.13,WeatherDisplay:10.37,2013-03-06 11:11:00,
2013-03-06 03:16:00,48.2,42.3,29.91,East,80,6.9,6.9,80,0.08,RA,,0.13,WeatherDisplay:10.37,2013-03-06 11:16:00,
2013-03-06 03:21:00,48.1,42.2,29.91,ESE,115,8.1,8.1,80,0.06,SCT,,0.13,WeatherDisplay:10.37,2013-03-06 11:21:00,
2013-03-06 03:22:00,48.2,42.3,29.91,ESE,120,6.9,6.9,80,0.06,SCT,,0.13,WeatherDisplay:10.37,2013-03-06 11:22:00,
2013-03-06 03:26:00,48.1,42.2,29.92,SSE,151,11.5,11.5,80,0.06,SCT,,0.13,WeatherDisplay:10.37,2013-03-06 11:26:00,
2013-03-06 03:27:00,48.1,42.2,29.92,ESE,119,6.9,6.9,80,0.06,SCT,,0.13,WeatherDisplay:10.37,2013-03-06 11:27:00,
2013-03-06 03:31:00,48.1,42.2,29.92,East,91,6.9,6.9,80,0.07,RA,,0.14,WeatherDisplay:10.37,2013-03-06 11:31:00,
2013-03-06 03:32:00,48.1,42.2,29.92,ENE,77,11.5,11.5,80,0.07,RA,,0.14,WeatherDisplay:10.37,2013-03-06 11:32:00,
2013-03-06 03:36:00,48.1,42.2,29.92,SSE,162,6.9,6.9,80,0.07,RA,,0.14,WeatherDisplay:10.37,2013-03-06 11:36:00,
2013-03-06 03:37:00,48.2,42.3,29.92,ESE,122,6.9,6.9,80,0.07,RA,,0.14,WeatherDisplay:10.37,2013-03-06 11:37:00,
2013-03-06 03:39:00,48.1,42.5,29.92,SE,132,8.1,8.1,81,0.07,RA,,0.14,WeatherDisplay:10.37,2013-03-06 11:39:00,
2013-03-06 03:40:00,48.2,42.6,29.92,East,91,8.1,8.1,81,0.07,RA,,0.14,WeatherDisplay:10.37,2013-03-06 11:40:00,
2013-03-06 03:41:00,48.2,42.3,29.92,SE,144,6.9,6.9,80,0.06,RA,,0.14,WeatherDisplay:10.37,2013-03-06 11:41:00,
2013-03-06 03:43:00,48.2,42.6,29.91,ESE,102,3.5,3.5,81,0.05,SCT,,0.14,WeatherDisplay:10.37,2013-03-06 11:43:00,
2013-03-06 03:44:00,48.2,42.6,29.91,East,95,6.9,6.9,81,0.04,SCT,,0.14,WeatherDisplay:10.37,2013-03-06 11:44:00,
2013-03-06 03:45:00,48.2,42.3,29.92,East,83,10.4,10.4,80,0.04,SCT,,0.14,WeatherDisplay:10.37,2013-03-06 11:45:00,
2013-03-06 03:48:00,48.2,42.6,29.92,SE,142,5.8,5.8,81,0.04,SCT,,0.14,WeatherDisplay:10.37,2013-03-06 11:48:00,
2013-03-06 03:49:00,48.2,42.6,29.92,ENE,73,9.2,9.2,81,0.03,SCT,,0.14,WeatherDisplay:10.37,2013-03-06 11:49:00,
2013-03-06 03:50:00,48.2,42.6,29.92,ENE,60,9.2,9.2,81,0.03,SCT,,0.14,WeatherDisplay:10.37,2013-03-06 11:50:00,
2013-03-06 03:54:00,48.2,42.6,29.91,ENE,78,8.1,8.1,81,0.03,SCT,,0.14,WeatherDisplay:10.37,2013-03-06 11:54:00,
2013-03-06 03:55:00,48.2,42.6,29.91,East,82,8.1,8.1,81,0.03,SCT,,0.14,WeatherDisplay:10.37,2013-03-06 11:55:00,
2013-03-06 04:00:00,48.1,42.5,29.92,SE,133,10.4,10.4,81,0.02,SCT,,0.14,WeatherDisplay:10.37,2013-03-06 12:00:00,
2013-03-06 04:05:00,48.2,42.6,29.92,ESE,102,2.0,8.0,81,0.00,SCT,,0.14,WeatherDisplay:10.37,2013-03-06 12:05:00,
2013-03-06 04:10:00,48.3,42.4,29.92,ESE,102,5.0,13.0,80,0.01,RA,,0.15,WeatherDisplay:10.37,2013-03-06 12:10:00,
2013-03-06 04:12:00,48.3,42.7,29.93,South,177,11.5,11.5,81,0.02,RA,,0.15,WeatherDisplay:10.37,2013-03-06 12:12:00,
2013-03-06 04:15:00,48.3,42.5,29.92,ESE,109,5.0,12.0,80,0.01,RA,,0.15,WeatherDisplay:10.37,2013-03-06 12:15:00,
2013-03-06 04:17:00,48.4,42.8,29.92,East,88,10.4,10.4,81,0.02,RA,,0.15,WeatherDisplay:10.37,2013-03-06 12:17:00,
2013-03-06 04:19:00,48.4,42.8,29.93,ENE,71,5.8,5.8,81,0.02,SCT,,0.15,WeatherDisplay:10.37,2013-03-06 12:19:00,
2013-03-06 04:20:00,48.4,42.8,29.93,SE,135,4.0,4.0,81,0.02,SCT,,0.15,WeatherDisplay:10.37,2013-03-06 12:20:00,
2013-03-06 04:22:00,48.4,42.8,29.93,SE,129,10.4,10.4,81,0.02,SCT,,0.15,WeatherDisplay:10.37,2013-03-06 12:22:00,
2013-03-06 04:24:00,48.4,42.8,29.93,East,97,9.2,9.2,81,0.02,SCT,,0.15,WeatherDisplay:10.37,2013-03-06 12:24:00,
2013-03-06 04:25:00,48.3,42.7,29.93,ESE,112,9.2,9.2,81,0.02,SCT,,0.15,WeatherDisplay:10.37,2013-03-06 12:25:00,
2013-03-06 04:27:00,48.4,42.8,29.93,ESE,118,9.0,9.0,81,0.02,SCT,,0.15,WeatherDisplay:10.37,2013-03-06 12:27:00,
2013-03-06 04:30:00,48.4,42.8,29.93,ESE,119,2.0,12.0,81,0.00,SCT,,0.15,WeatherDisplay:10.37,2013-03-06 12:30:00,
2013-03-06 04:31:00,48.4,42.8,29.93,SE,140,6.0,6.0,81,0.02,SCT,,0.15,WeatherDisplay:10.37,2013-03-06 12:31:00,
2013-03-06 04:33:00,48.4,42.5,29.93,SE,142,8.1,8.1,80,0.01,SCT,,0.15,WeatherDisplay:10.37,2013-03-06 12:33:00,
2013-03-06 04:35:00,48.4,42.5,29.93,East,84,11.5,11.5,80,0.01,SCT,,0.15,WeatherDisplay:10.37,2013-03-06 12:35:00,
2013-03-06 04:36:00,48.4,42.8,29.93,SE,124,11.5,11.5,81,0.01,SCT,,0.15,WeatherDisplay:10.37,2013-03-06 12:36:00,
2013-03-06 04:37:00,48.4,42.8,29.93,SE,137,11.5,11.5,81,0.01,SCT,,0.15,WeatherDisplay:10.37,2013-03-06 12:37:00,
2013-03-06 04:38:00,48.4,42.8,29.93,SE,144,6.9,6.9,81,0.01,SCT,,0.15,WeatherDisplay:10.37,2013-03-06 12:38:00,
2013-03-06 04:40:00,48.4,42.8,29.93,SE,136,6.9,6.9,81,0.01,SCT,,0.15,WeatherDisplay:10.37,2013-03-06 12:40:00,
2013-03-06 04:42:00,48.4,42.8,29.93,East,97,6.9,6.9,81,0.01,SCT,,0.15,WeatherDisplay:10.37,2013-03-06 12:42:00,
2013-03-06 04:43:00,48.5,42.9,29.93,ESE,103,7.0,7.0,81,0.01,SCT,,0.15,WeatherDisplay:10.37,2013-03-06 12:43:00,
2013-03-06 04:44:00,48.5,42.9,29.93,East,101,10.4,10.4,81,0.01,SCT,,0.15,WeatherDisplay:10.37,2013-03-06 12:44:00,
2013-03-06 04:45:00,48.5,42.9,29.93,ESE,123,6.9,6.9,81,0.01,SCT,,0.15,WeatherDisplay:10.37,2013-03-06 12:45:00,
2013-03-06 04:47:00,48.5,42.9,29.93,East,101,5.0,5.0,81,0.01,SCT,,0.15,WeatherDisplay:10.37,2013-03-06 12:47:00,
2013-03-06 04:48:00,48.5,42.9,29.93,SSE,152,5.0,5.0,81,0.01,SCT,,0.15,WeatherDisplay:10.37,2013-03-06 12:48:00,
2013-03-06 04:50:00,48.5,42.6,29.94,ESE,103,4.6,4.6,80,0.01,SCT,,0.15,WeatherDisplay:10.37,2013-03-06 12:50:00,
2013-03-06 04:52:00,48.5,42.6,29.94,ESE,123,6.9,6.9,80,0.01,SCT,,0.15,WeatherDisplay:10.37,2013-03-06 12:52:00,
2013-03-06 04:53:00,48.5,42.6,29.94,East,98,6.9,6.9,80,0.01,SCT,,0.15,WeatherDisplay:10.37,2013-03-06 12:53:00,
2013-03-06 04:54:00,48.5,42.6,29.94,East,98,6.9,6.9,80,0.01,SCT,,0.15,WeatherDisplay:10.37,2013-03-06 12:54:00,
2013-03-06 04:55:00,48.5,42.6,29.94,ESE,121,1.0,7.0,80,0.00,SCT,,0.15,WeatherDisplay:10.37,2013-03-06 12:55:00,
2013-03-06 04:57:00,48.5,42.9,29.94,East,90,4.0,4.0,81,0.01,SCT,,0.15,WeatherDisplay:10.37,2013-03-06 12:57:00,
2013-03-06 05:00:00,48.5,42.9,29.94,SE,128,8.1,8.1,81,0.01,SCT,,0.15,WeatherDisplay:10.37,2013-03-06 13:00:00,
2013-03-06 05:01:00,48.5,42.6,29.94,ESE,121,8.1,8.1,80,0.01,SCT,,0.15,WeatherDisplay:10.37,2013-03-06 13:01:00,
2013-03-06 05:02:00,48.5,42.9,29.94,ENE,77,4.6,4.6,81,0.01,SCT,,0.15,WeatherDisplay:10.37,2013-03-06 13:02:00,
2013-03-06 05:05:00,48.6,43.0,29.94,NE,49,5.8,5.8,81,0.01,SCT,,0.15,WeatherDisplay:10.37,2013-03-06 13:05:00,
2013-03-06 05:06:00,48.5,42.6,29.94,ESE,109,5.8,5.8,80,0.01,SCT,,0.15,WeatherDisplay:10.37,2013-03-06 13:06:00,
2013-03-06 05:10:00,48.5,42.9,29.95,ESE,122,8.1,8.1,81,0.00,SCT,,0.15,WeatherDisplay:10.37,2013-03-06 13:10:00,
2013-03-06 05:11:00,48.6,43.0,29.95,SE,134,8.1,8.1,81,0.00,SCT,,0.15,WeatherDisplay:10.37,2013-03-06 13:11:00,
2013-03-06 05:15:00,48.6,42.7,29.96,ESE,108,4.6,4.6,80,0.00,SCT,,0.15,WeatherDisplay:10.37,2013-03-06 13:15:00,
2013-03-06 05:16:00,48.6,42.4,29.96,South,179,11.5,11.5,79,0.00,SCT,,0.15,WeatherDisplay:10.37,2013-03-06 13:16:00,
2013-03-06 05:17:00,48.5,42.3,29.96,SE,131,5.0,5.0,79,0.00,SCT,,0.15,WeatherDisplay:10.37,2013-03-06 13:17:00,
2013-03-06 05:20:00,48.5,42.0,29.96,ESE,120,6.9,6.9,78,0.00,SCT,,0.15,WeatherDisplay:10.37,2013-03-06 13:20:00,
2013-03-06 05:21:00,48.5,42.0,29.96,South,189,6.9,6.9,78,0.00,SCT,,0.15,WeatherDisplay:10.37,2013-03-06 13:21:00,
2013-03-06 05:23:00,48.4,41.9,29.96,SSW,207,6.9,6.9,78,0.00,SCT,,0.15,WeatherDisplay:10.37,2013-03-06 13:23:00,
2013-03-06 05:25:00,48.4,41.9,29.96,SW,214,3.5,3.5,78,0.00,SCT,,0.15,WeatherDisplay:10.37,2013-03-06 13:25:00,
2013-03-06 05:26:00,48.4,42.2,29.96,SE,145,3.5,3.5,79,0.00,SCT,,0.15,WeatherDisplay:10.37,2013-03-06 13:26:00,
2013-03-06 05:28:00,48.4,41.9,29.97,SE,127,3.5,3.5,78,0.00,SCT,,0.15,WeatherDisplay:10.37,2013-03-06 13:28:00,
2013-03-06 05:31:00,48.4,41.9,29.97,East,99,5.8,5.8,78,0.00,SCT,,0.15,WeatherDisplay:10.37,2013-03-06 13:31:00,
2013-03-06 05:32:00,48.4,41.9,29.97,South,177,2.3,2.3,78,0.00,SCT,,0.15,WeatherDisplay:10.37,2013-03-06 13:32:00,
2013-03-06 05:33:00,48.3,41.8,29.97,South,169,3.5,3.5,78,0.00,SCT,,0.15,WeatherDisplay:10.37,2013-03-06 13:33:00,
2013-03-06 05:36:00,48.3,41.8,29.97,SE,127,10.4,10.4,78,0.00,SCT,,0.15,WeatherDisplay:10.37,2013-03-06 13:36:00,
2013-03-06 05:38:00,48.3,41.4,29.97,SE,130,12.7,12.7,77,0.00,SCT,,0.15,WeatherDisplay:10.37,2013-03-06 13:38:00,
2013-03-06 05:39:00,48.2,41.3,29.97,ESE,111,12.7,12.7,77,0.00,SCT,,0.15,WeatherDisplay:10.37,2013-03-06 13:39:00,
2013-03-06 05:41:00,48.2,41.0,29.97,East,92,10.4,10.4,76,0.00,SCT,,0.15,WeatherDisplay:10.37,2013-03-06 13:41:00,
2013-03-06 05:43:00,48.1,41.2,29.97,ESE,107,3.5,3.5,77,0.00,SCT,,0.15,WeatherDisplay:10.37,2013-03-06 13:43:00,
2013-03-06 05:44:00,48.1,40.9,29.97,SE,145,3.5,3.5,76,0.00,SCT,,0.15,WeatherDisplay:10.37,2013-03-06 13:44:00,
2013-03-06 05:48:00,48.0,40.8,29.97,ESE,113,11.5,11.5,76,0.00,SCT,,0.15,WeatherDisplay:10.37,2013-03-06 13:48:00,
2013-03-06 05:49:00,48.0,40.8,29.97,SSE,148,10.4,10.4,76,0.00,SCT,,0.15,WeatherDisplay:10.37,2013-03-06 13:49:00,
2013-03-06 05:50:00,48.0,40.7,29.97,ESE,123,5.0,12.0,76,0.00,SCT,,0.15,WeatherDisplay:10.37,2013-03-06 13:50:00,
2013-03-06 05:54:00,47.9,40.4,29.98,East,87,5.8,5.8,75,0.00,SCT,,0.15,WeatherDisplay:10.37,2013-03-06 13:54:00,
2013-03-06 05:55:00,47.8,40.6,29.97,ESE,113,8.1,8.1,76,0.00,SCT,,0.15,WeatherDisplay:10.37,2013-03-06 13:55:00,
2013-03-06 05:59:00,47.8,40.3,29.97,SE,143,10.0,10.0,75,0.00,SCT,,0.15,WeatherDisplay:10.37,2013-03-06 13:59:00,
2013-03-06 06:00:00,47.8,39.9,29.97,SE,134,6.0,10.0,74,0.00,SCT,,0.15,WeatherDisplay:10.37,2013-03-06 14:00:00,
2013-03-06 06:04:00,47.7,40.2,29.98,ESE,102,6.9,6.9,75,0.00,SCT,,0.15,WeatherDisplay:10.37,2013-03-06 14:04:00,
2013-03-06 06:05:00,47.7,40.2,29.98,SSW,205,6.9,6.9,75,0.00,SCT,,0.15,WeatherDisplay:10.37,2013-03-06 14:05:00,
2013-03-06 06:06:00,47.7,40.2,29.98,SE,145,6.0,6.0,75,0.00,SCT,,0.15,WeatherDisplay:10.37,2013-03-06 14:06:00,
2013-03-06 06:09:00,47.6,40.1,29.98,SE,128,3.5,3.5,75,0.00,SCT,,0.15,WeatherDisplay:10.37,2013-03-06 14:09:00,
2013-03-06 06:10:00,47.6,40.4,29.98,South,176,3.5,3.5,76,0.00,SCT,,0.15,WeatherDisplay:10.37,2013-03-06 14:10:00,
2013-03-06 06:11:00,47.6,40.4,29.98,SSW,212,3.5,3.5,76,0.00,SCT,,0.15,WeatherDisplay:10.37,2013-03-06 14:11:00,
2013-03-06 06:14:00,47.6,40.4,29.98,SSE,148,5.8,5.8,76,0.00,SCT,,0.15,WeatherDisplay:10.37,2013-03-06 14:14:00,
2013-03-06 06:15:00,47.6,40.4,29.98,ESE,115,4.0,4.0,76,0.00,SCT,,0.15,WeatherDisplay:10.37,2013-03-06 14:15:00,
2013-03-06 06:16:00,47.6,40.4,29.98,ESE,111,4.6,4.6,76,0.00,SCT,,0.15,WeatherDisplay:10.37,2013-03-06 14:16:00,
2013-03-06 06:17:00,47.6,40.4,29.98,ESE,123,4.6,4.6,76,0.00,SCT,,0.15,WeatherDisplay:10.37,2013-03-06 14:17:00,
2013-03-06 06:19:00,47.6,40.4,29.98,SE,144,3.5,3.5,76,0.00,SCT,,0.15,WeatherDisplay:10.37,2013-03-06 14:19:00,
2013-03-06 06:20:00,47.6,40.4,29.98,South,191,3.5,3.5,76,0.00,SCT,,0.15,WeatherDisplay:10.37,2013-03-06 14:20:00,
2013-03-06 06:21:00,47.6,40.4,29.98,SSW,211,3.5,3.5,76,0.00,SCT,,0.15,WeatherDisplay:10.37,2013-03-06 14:21:00,
2013-03-06 06:22:00,47.6,40.4,29.98,ESE,123,3.5,3.5,76,0.00,SCT,,0.15,WeatherDisplay:10.37,2013-03-06 14:22:00,
2013-03-06 06:25:00,47.6,40.4,29.99,SSE,147,5.8,5.8,76,0.00,SCT,,0.15,WeatherDisplay:10.37,2013-03-06 14:25:00,
2013-03-06 06:26:00,47.6,40.4,29.98,SE,146,3.5,3.5,76,0.00,SCT,,0.15,WeatherDisplay:10.37,2013-03-06 14:26:00,
2013-03-06 06:27:00,47.6,40.4,29.98,SSE,156,3.5,3.5,76,0.00,SCT,,0.15,WeatherDisplay:10.37,2013-03-06 14:27:00,
2013-03-06 06:30:00,47.6,40.4,29.99,SE,129,6.0,6.0,76,0.00,SCT,,0.15,WeatherDisplay:10.37,2013-03-06 14:30:00,
2013-03-06 06:31:00,47.6,40.4,29.99,SE,139,8.1,8.1,76,0.00,SCT,,0.15,WeatherDisplay:10.37,2013-03-06 14:31:00,
2013-03-06 06:32:00,47.6,40.4,29.99,East,99,5.8,5.8,76,0.00,SCT,,0.15,WeatherDisplay:10.37,2013-03-06 14:32:00,
2013-03-06 06:33:00,47.6,40.4,29.99,SSE,150,5.8,5.8,76,0.00,SCT,,0.15,WeatherDisplay:10.37,2013-03-06 14:33:00,
2013-03-06 06:35:00,47.6,40.4,29.99,SSE,149,3.5,3.5,76,0.00,SCT,,0.15,WeatherDisplay:10.37,2013-03-06 14:35:00,
2013-03-06 06:37:00,47.6,40.4,29.99,SE,142,3.5,3.5,76,0.00,SCT,,0.15,WeatherDisplay:10.37,2013-03-06 14:37:00,
2013-03-06 06:38:00,47.6,40.4,29.99,SE,143,3.5,3.5,76,0.00,SCT,,0.15,WeatherDisplay:10.37,2013-03-06 14:38:00,
2013-03-06 06:41:00,47.6,40.4,30.00,SE,125,2.3,2.3,76,0.00,SCT,,0.15,WeatherDisplay:10.37,2013-03-06 14:41:00,
2013-03-06 06:42:00,47.6,40.7,30.00,ESE,105,0.0,0.0,77,0.00,SCT,,0.15,WeatherDisplay:10.37,2013-03-06 14:42:00,
2013-03-06 06:43:00,47.6,40.4,30.00,ENE,76,0.0,0.6,76,0.00,SCT,,0.15,WeatherDisplay:10.37,2013-03-06 14:43:00,
2013-03-06 06:46:00,47.6,40.7,30.00,NE,43,3.0,3.0,77,0.00,SCT,,0.15,WeatherDisplay:10.37,2013-03-06 14:46:00,
2013-03-06 06:47:00,47.6,40.4,30.00,SSE,160,3.5,3.5,76,0.00,SCT,,0.15,WeatherDisplay:10.37,2013-03-06 14:47:00,
2013-03-06 06:48:00,47.6,40.7,30.00,ESE,115,3.5,3.5,77,0.00,SCT,,0.15,WeatherDisplay:10.37,2013-03-06 14:48:00,
2013-03-06 06:49:00,47.6,40.7,30.00,ESE,115,2.3,2.3,77,0.00,SCT,,0.15,WeatherDisplay:10.37,2013-03-06 14:49:00,
2013-03-06 06:51:00,47.7,40.8,30.00,SSW,205,5.8,5.8,77,0.00,SCT,,0.15,WeatherDisplay:10.37,2013-03-06 14:51:00,
2013-03-06 06:53:00,47.7,40.8,30.00,ESE,123,6.9,6.9,77,0.00,SCT,,0.15,WeatherDisplay:10.37,2013-03-06 14:53:00,
2013-03-06 06:54:00,47.7,40.5,30.00,ENE,63,3.5,3.5,76,0.00,SCT,,0.15,WeatherDisplay:10.37,2013-03-06 14:54:00,
2013-03-06 06:56:00,47.7,40.5,30.00,ENE,60,3.5,0.0,76,0.00,SCT,,0.15,WeatherDisplay:10.37,2013-03-06 14:56:00,
2013-03-06 06:57:00,47.7,40.5,30.00,ESE,123,5.8,5.8,76,0.00,SCT,,0.15,WeatherDisplay:10.37,2013-03-06 14:57:00,
2013-03-06 06:58:00,47.7,40.8,30.00,East,85,8.0,8.0,77,0.00,SCT,,0.15,WeatherDisplay:10.37,2013-03-06 14:58:00,
2013-03-06 07:00:00,47.7,40.5,30.00,East,97,8.1,8.1,76,0.00,SCT,,0.15,WeatherDisplay:10.37,2013-03-06 15:00:00,
2013-03-06 07:02:00,47.7,40.5,30.00,East,89,3.5,3.5,76,0.00,SCT,,0.15,WeatherDisplay:10.37,2013-03-06 15:02:00,
2013-03-06 07:04:00,47.7,40.5,30.00,East,98,6.0,6.0,76,0.00,SCT,,0.15,WeatherDisplay:10.37,2013-03-06 15:04:00,
2013-03-06 07:05:00,47.8,40.6,30.01,East,97,9.2,9.2,76,0.00,SCT,,0.15,WeatherDisplay:10.37,2013-03-06 15:05:00,
2013-03-06 07:07:00,47.8,40.3,30.01,East,90,3.5,3.5,75,0.00,SCT,,0.15,WeatherDisplay:10.37,2013-03-06 15:07:00,
2013-03-06 07:09:00,47.8,40.6,30.01,ESE,104,3.5,3.5,76,0.00,SCT,,0.15,WeatherDisplay:10.37,2013-03-06 15:09:00,
2013-03-06 07:11:00,47.9,40.7,30.01,East,92,3.5,3.5,76,0.00,SCT,,0.15,WeatherDisplay:10.37,2013-03-06 15:11:00,
2013-03-06 07:12:00,48.1,40.5,30.01,South,178,6.9,6.9,75,0.00,SCT,,0.15,WeatherDisplay:10.37,2013-03-06 15:12:00,
2013-03-06 07:13:00,48.1,40.5,30.01,SSW,192,6.9,6.9,75,0.00,SCT,,0.15,WeatherDisplay:10.37,2013-03-06 15:13:00,
2013-03-06 07:15:00,48.2,40.3,30.01,ENE,63,2.3,2.3,74,0.00,SCT,,0.15,WeatherDisplay:10.37,2013-03-06 15:15:00,
2013-03-06 07:16:00,48.4,40.8,30.01,ENE,63,1.2,0.0,75,0.00,SCT,,0.15,WeatherDisplay:10.37,2013-03-06 15:16:00,
2013-03-06 07:17:00,48.5,40.9,30.01,ENE,63,0.0,0.0,75,0.00,SCT,,0.15,WeatherDisplay:10.37,2013-03-06 15:17:00,
2013-03-06 07:18:00,48.6,41.0,30.01,East,95,3.5,3.5,75,0.00,SCT,,0.15,WeatherDisplay:10.37,2013-03-06 15:18:00,
2013-03-06 07:21:00,48.8,40.9,30.02,SSE,147,3.5,3.5,74,0.00,SCT,,0.15,WeatherDisplay:10.37,2013-03-06 15:21:00,
2013-03-06 07:22:00,48.8,40.9,30.01,SSE,147,3.5,3.5,74,0.00,SCT,,0.15,WeatherDisplay:10.37,2013-03-06 15:22:00,
2013-03-06 07:23:00,48.9,41.0,30.02,ENE,59,4.0,4.0,74,0.00,SCT,,0.15,WeatherDisplay:10.37,2013-03-06 15:23:00,
2013-03-06 07:24:00,48.9,40.6,30.01,East,96,2.3,2.3,73,0.00,SCT,,0.15,WeatherDisplay:10.37,2013-03-06 15:24:00,
2013-03-06 07:26:00,48.9,40.6,30.02,ENE,60,5.8,5.8,73,0.00,SCT,,0.15,WeatherDisplay:10.37,2013-03-06 15:26:00,
2013-03-06 07:28:00,48.9,40.6,30.02,ENE,67,3.5,3.5,73,0.00,SCT,,0.15,WeatherDisplay:10.37,2013-03-06 15:28:00,
2013-03-06 07:29:00,49.0,41.1,30.02,ESE,122,3.5,3.5,74,0.00,SCT,,0.15,WeatherDisplay:10.37,2013-03-06 15:29:00,
2013-03-06 07:31:00,49.0,41.1,30.02,ESE,104,2.3,2.3,74,0.00,SCT,,0.15,WeatherDisplay:10.37,2013-03-06 15:31:00,
2013-03-06 07:33:00,48.9,40.6,30.02,SE,125,3.5,3.5,73,0.00,SCT,,0.15,WeatherDisplay:10.37,2013-03-06 15:33:00,
2013-03-06 07:34:00,48.9,41.0,30.02,SE,134,5.0,5.0,74,0.00,SCT,,0.15,WeatherDisplay:10.37,2013-03-06 15:34:00,
2013-03-06 07:37:00,48.8,40.5,30.02,NE,45,5.8,5.8,73,0.00,SCT,,0.15,WeatherDisplay:10.37,2013-03-06 15:37:00,
2013-03-06 07:38:00,48.7,40.8,30.03,NE,46,1.2,1.2,74,0.00,SCT,,0.15,WeatherDisplay:10.37,2013-03-06 15:38:00,
2013-03-06 07:39:00,48.7,40.8,30.03,NE,46,2.3,2.3,74,0.00,SCT,,0.15,WeatherDisplay:10.37,2013-03-06 15:39:00,
2013-03-06 07:42:00,48.7,40.8,30.03,ENE,67,3.5,3.5,74,0.00,SCT,,0.15,WeatherDisplay:10.37,2013-03-06 15:42:00,
2013-03-06 07:43:00,48.7,41.1,30.03,ENE,67,3.5,3.5,75,0.00,SCT,,0.15,WeatherDisplay:10.37,2013-03-06 15:43:00,
2013-03-06 07:45:00,48.7,41.1,30.03,East,85,1.2,1.2,75,0.00,SCT,,0.15,WeatherDisplay:10.37,2013-03-06 15:45:00,
2013-03-06 07:47:00,48.7,41.1,30.03,ENE,75,2.3,2.3,75,0.00,SCT,,0.15,WeatherDisplay:10.37,2013-03-06 15:47:00,
2013-03-06 07:48:00,48.7,40.8,30.03,ENE,74,2.3,2.3,74,0.00,SCT,,0.15,WeatherDisplay:10.37,2013-03-06 15:48:00,
2013-03-06 07:51:00,48.7,40.8,30.04,NE,48,2.3,2.3,74,0.00,SCT,,0.15,WeatherDisplay:10.37,2013-03-06 15:51:00,
2013-03-06 07:53:00,48.8,40.9,30.03,ENE,75,5.8,5.8,74,0.00,SCT,,0.15,WeatherDisplay:10.37,2013-03-06 15:53:00,
2013-03-06 07:54:00,48.8,40.9,30.03,ENE,75,3.5,3.5,74,0.00,SCT,,0.15,WeatherDisplay:10.37,2013-03-06 15:54:00,
2013-03-06 07:56:00,48.9,41.0,30.03,NNE,25,1.2,1.2,74,0.00,SCT,,0.15,WeatherDisplay:10.37,2013-03-06 15:56:00,
2013-03-06 07:58:00,48.9,41.0,30.04,ENE,78,3.5,3.5,74,0.00,SCT,,0.15,WeatherDisplay:10.37,2013-03-06 15:58:00,
2013-03-06 08:00:00,48.9,41.0,30.04,East,98,1.2,1.2,74,0.00,SCT,,0.15,WeatherDisplay:10.37,2013-03-06 16:00:00,
2013-03-06 08:01:00,49.0,40.7,30.04,ENE,70,2.3,2.3,73,0.00,SCT,,0.15,WeatherDisplay:10.37,2013-03-06 16:01:00,
2013-03-06 08:03:00,49.0,40.7,30.04,ENE,70,1.2,1.2,73,0.00,SCT,,0.15,WeatherDisplay:10.37,2013-03-06 16:03:00,
2013-03-06 08:05:00,49.1,41.2,30.04,ENE,71,1.2,0.0,74,0.00,SCT,,0.15,WeatherDisplay:10.37,2013-03-06 16:05:00,
2013-03-06 08:07:00,49.1,40.8,30.04,ENE,71,2.0,2.0,73,0.00,SCT,,0.15,WeatherDisplay:10.37,2013-03-06 16:07:00,
2013-03-06 08:08:00,49.1,40.8,30.04,ESE,110,3.5,0.0,73,0.00,SCT,,0.15,WeatherDisplay:10.37,2013-03-06 16:08:00,
2013-03-06 08:11:00,49.2,41.3,30.04,ESE,120,2.3,2.3,74,0.00,SCT,,0.15,WeatherDisplay:10.37,2013-03-06 16:11:00,
2013-03-06 08:12:00,49.2,41.3,30.04,ESE,120,3.5,3.5,74,0.00,SCT,,0.15,WeatherDisplay:10.37,2013-03-06 16:12:00,
2013-03-06 08:13:00,49.4,41.1,30.04,ESE,111,2.3,2.3,73,0.00,SCT,,0.15,WeatherDisplay:10.37,2013-03-06 16:13:00,
2013-03-06 08:17:00,49.5,41.2,30.04,ESE,120,3.0,3.0,73,0.00,SCT,,0.15,WeatherDisplay:10.37,2013-03-06 16:17:00,
2013-03-06 08:18:00,49.6,41.3,30.05,SSE,147,6.9,6.9,73,0.00,SCT,,0.15,WeatherDisplay:10.37,2013-03-06 16:18:00,
2013-03-06 08:19:00,49.6,41.3,30.04,SE,128,6.9,6.9,73,0.00,SCT,,0.15,WeatherDisplay:10.37,2013-03-06 16:19:00,
2013-03-06 08:22:00,49.8,41.5,30.05,SE,131,4.6,4.6,73,0.00,SCT,,0.15,WeatherDisplay:10.37,2013-03-06 16:22:00,
2013-03-06 08:24:00,50.0,41.7,30.04,West,266,2.3,2.3,73,0.00,SCT,,0.15,WeatherDisplay:10.37,2013-03-06 16:24:00,
2013-03-06 08:27:00,50.4,41.7,30.04,SE,141,3.0,3.0,72,0.00,SCT,,0.15,WeatherDisplay:10.37,2013-03-06 16:27:00,
2013-03-06 08:29:00,50.6,41.5,30.04,ENE,76,3.5,3.5,71,0.00,SCT,,0.15,WeatherDisplay:10.37,2013-03-06 16:29:00,
2013-03-06 08:31:00,50.7,41.6,30.04,East,85,3.5,3.5,71,0.00,SCT,,0.15,WeatherDisplay:10.37,2013-03-06 16:31:00,
2013-03-06 08:33:00,50.9,41.5,30.04,ESE,123,6.0,6.0,70,0.00,SCT,,0.15,WeatherDisplay:10.37,2013-03-06 16:33:00,
2013-03-06 08:34:00,51.0,41.6,30.05,SE,135,5.8,5.8,70,0.00,SCT,,0.15,WeatherDisplay:10.37,2013-03-06 16:34:00,
2013-03-06 08:35:00,51.1,41.7,30.05,SE,140,5.0,5.0,70,0.00,SCT,,0.15,WeatherDisplay:10.37,2013-03-06 16:35:00,
2013-03-06 08:36:00,51.2,41.7,30.05,ESE,118,5.8,5.8,70,0.00,SCT,,0.15,WeatherDisplay:10.37,2013-03-06 16:36:00,
2013-03-06 08:38:00,51.3,41.8,30.04,East,92,3.5,3.5,70,0.00,SCT,,0.15,WeatherDisplay:10.37,2013-03-06 16:38:00,
2013-03-06 08:39:00,51.5,42.0,30.05,SE,140,6.0,6.0,70,0.00,SCT,,0.15,WeatherDisplay:10.37,2013-03-06 16:39:00,
2013-03-06 08:41:00,51.6,41.4,30.04,East,91,3.5,3.5,68,0.00,SCT,,0.15,WeatherDisplay:10.37,2013-03-06 16:41:00,
2013-03-06 08:43:00,51.6,41.4,30.04,SSW,197,5.8,5.8,68,0.00,SCT,,0.15,WeatherDisplay:10.37,2013-03-06 16:43:00,
2013-03-06 08:44:00,51.6,41.0,30.05,SE,136,5.8,5.8,67,0.00,SCT,,0.15,WeatherDisplay:10.37,2013-03-06 16:44:00,
2013-03-06 08:47:00,51.7,40.7,30.05,SE,144,5.0,5.0,66,0.00,SCT,,0.15,WeatherDisplay:10.37,2013-03-06 16:47:00,
2013-03-06 08:49:00,51.8,40.8,30.05,SE,141,4.6,4.6,66,0.00,SCT,,0.15,WeatherDisplay:10.37,2013-03-06 16:49:00,
2013-03-06 08:50:00,51.9,40.9,30.05,SE,146,4.6,4.6,66,0.00,SCT,,0.15,WeatherDisplay:10.37,2013-03-06 16:50:00,
2013-03-06 08:52:00,52.0,41.0,30.04,SSE,148,5.8,5.8,66,0.00,SCT,,0.15,WeatherDisplay:10.37,2013-03-06 16:52:00,
2013-03-06 08:54:00,52.2,41.2,30.05,SSW,198,4.6,4.6,66,0.00,SCT,,0.15,WeatherDisplay:10.37,2013-03-06 16:54:00,
2013-03-06 08:55:00,52.3,41.3,30.04,SSW,200,4.6,4.6,66,0.00,SCT,,0.15,WeatherDisplay:10.37,2013-03-06 16:55:00,
2013-03-06 08:57:00,52.5,41.1,30.05,ESE,112,7.0,7.0,65,0.00,SCT,,0.15,WeatherDisplay:10.37,2013-03-06 16:57:00,
2013-03-06 08:59:00,52.8,41.0,30.05,SSE,151,7.0,7.0,64,0.00,SCT,,0.15,WeatherDisplay:10.37,2013-03-06 16:59:00,
2013-03-06 09:00:00,52.9,41.0,30.05,ESE,113,6.9,6.9,64,0.00,SCT,,0.15,WeatherDisplay:10.37,2013-03-06 17:00:00,
2013-03-06 09:04:00,53.2,40.5,30.05,South,188,9.2,9.2,62,0.00,SCT,,0.15,WeatherDisplay:10.37,2013-03-06 17:04:00,
2013-03-06 09:05:00,53.3,40.6,30.05,SSE,166,5.8,5.8,62,0.00,SCT,,0.15,WeatherDisplay:10.37,2013-03-06 17:05:00,
2013-03-06 09:09:00,53.5,41.2,30.05,SSE,151,2.3,2.3,63,0.00,SCT,,0.15,WeatherDisplay:10.37,2013-03-06 17:09:00,
2013-03-06 09:10:00,53.5,41.2,30.05,SE,131,1.0,7.0,63,0.00,SCT,,0.15,WeatherDisplay:10.37,2013-03-06 17:10:00,
2013-03-06 09:11:00,53.5,41.2,30.06,SE,130,9.2,9.2,63,0.00,SCT,,0.15,WeatherDisplay:10.37,2013-03-06 17:11:00,
2013-03-06 09:15:00,53.2,41.0,30.06,ESE,111,2.0,9.0,63,0.00,SCT,,0.15,WeatherDisplay:10.37,2013-03-06 17:15:00,
2013-03-06 09:16:00,53.2,40.9,30.06,SSE,151,3.5,3.5,63,0.00,SCT,,0.15,WeatherDisplay:10.37,2013-03-06 17:16:00,
2013-03-06 09:17:00,53.1,40.8,30.06,SSE,154,3.5,3.5,63,0.00,SCT,,0.15,WeatherDisplay:10.37,2013-03-06 17:17:00,
2013-03-06 09:20:00,53.2,40.9,30.06,SE,133,4.0,4.0,63,0.00,SCT,,0.15,WeatherDisplay:10.37,2013-03-06 17:20:00,
2013-03-06 09:21:00,53.3,40.6,30.06,ESE,107,4.0,4.0,62,0.00,SCT,,0.15,WeatherDisplay:10.37,2013-03-06 17:21:00,
2013-03-06 09:22:00,53.2,40.9,30.06,ESE,116,4.6,4.6,63,0.00,SCT,,0.15,WeatherDisplay:10.37,2013-03-06 17:22:00,
2013-03-06 09:25:00,53.4,40.7,30.06,East,98,5.8,5.8,62,0.00,SCT,,0.15,WeatherDisplay:10.37,2013-03-06 17:25:00,
2013-03-06 09:26:00,53.4,41.1,30.06,East,87,6.9,6.9,63,0.00,SCT,,0.15,WeatherDisplay:10.37,2013-03-06 17:26:00,
2013-03-06 09:27:00,53.4,41.1,30.06,ESE,118,3.5,3.5,63,0.00,SCT,,0.15,WeatherDisplay:10.37,2013-03-06 17:27:00,
2013-03-06 09:29:00,53.5,41.2,30.06,SSE,152,3.5,3.5,63,0.00,SCT,,0.15,WeatherDisplay:10.37,2013-03-06 17:29:00,
2013-03-06 09:31:00,53.6,41.3,30.06,South,191,3.5,3.5,63,0.00,SCT,,0.15,WeatherDisplay:10.37,2013-03-06 17:31:00,
2013-03-06 09:32:00,53.7,41.4,30.06,South,186,3.5,3.5,63,0.00,SCT,,0.15,WeatherDisplay:10.37,2013-03-06 17:32:00,
2013-03-06 09:34:00,53.8,41.5,30.07,SSE,154,3.5,3.5,63,0.00,SCT,,0.15,WeatherDisplay:10.37,2013-03-06 17:34:00,
2013-03-06 09:36:00,53.9,41.6,30.06,SSE,151,4.6,4.6,63,0.00,SCT,,0.15,WeatherDisplay:10.37,2013-03-06 17:36:00,
2013-03-06 09:37:00,53.9,40.8,30.06,ESE,114,4.6,4.6,61,0.00,SCT,,0.15,WeatherDisplay:10.37,2013-03-06 17:37:00,
2013-03-06 09:40:00,53.7,40.6,30.06,SE,135,5.8,5.8,61,0.00,SCT,,0.15,WeatherDisplay:10.37,2013-03-06 17:40:00,
2013-03-06 09:42:00,53.6,40.5,30.06,ESE,106,6.9,6.9,61,0.00,SCT,,0.15,WeatherDisplay:10.37,2013-03-06 17:42:00,
2013-03-06 09:43:00,53.6,40.5,30.06,SSE,148,6.9,6.9,61,0.00,SCT,,0.15,WeatherDisplay:10.37,2013-03-06 17:43:00,
2013-03-06 09:45:00,53.5,40.8,30.06,East,89,7.0,7.0,62,0.00,SCT,,0.15,WeatherDisplay:10.37,2013-03-06 17:45:00,
2013-03-06 09:48:00,53.5,40.8,30.06,SE,126,6.9,6.9,62,0.00,SCT,,0.15,WeatherDisplay:10.37,2013-03-06 17:48:00,
2013-03-06 09:49:00,53.4,40.3,30.07,ENE,70,6.9,6.9,61,0.00,SCT,,0.15,WeatherDisplay:10.37,2013-03-06 17:49:00,
2013-03-06 09:50:00,53.4,39.9,30.06,SE,132,4.6,4.6,60,0.00,SCT,,0.15,WeatherDisplay:10.37,2013-03-06 17:50:00,
2013-03-06 09:54:00,53.3,39.8,30.06,ESE,119,5.8,5.8,60,0.00,SCT,,0.15,WeatherDisplay:10.37,2013-03-06 17:54:00,
2013-03-06 09:55:00,53.3,39.8,30.06,SE,125,2.0,7.0,60,0.00,SCT,,0.15,WeatherDisplay:10.37,2013-03-06 17:55:00,
2013-03-06 09:56:00,53.4,39.9,30.06,East,89,6.9,6.9,60,0.00,SCT,,0.15,WeatherDisplay:10.37,2013-03-06 17:56:00,
2013-03-06 09:59:00,53.4,39.4,30.06,SSE,160,6.9,6.9,59,0.00,SCT,,0.15,WeatherDisplay:10.37,2013-03-06 17:59:00,
2013-03-06 10:00:00,53.4,39.4,30.06,SSE,154,6.9,6.9,59,0.00,SCT,,0.15,WeatherDisplay:10.37,2013-03-06 18:00:00,
2013-03-06 10:01:00,53.4,39.4,30.07,ESE,111,3.5,3.5,59,0.00,SCT,,0.15,WeatherDisplay:10.37,2013-03-06 18:01:00,
2013-03-06 10:03:00,53.5,39.5,30.07,SE,132,5.0,5.0,59,0.00,SCT,,0.15,WeatherDisplay:10.37,2013-03-06 18:03:00,
2013-03-06 10:04:00,53.5,39.9,30.07,ESE,123,4.6,4.6,60,0.00,SCT,,0.15,WeatherDisplay:10.37,2013-03-06 18:04:00,
2013-03-06 10:05:00,53.5,39.5,30.06,ENE,66,4.6,4.6,59,0.00,SCT,,0.15,WeatherDisplay:10.37,2013-03-06 18:05:00,
2013-03-06 10:07:00,53.5,39.5,30.07,SE,130,4.0,4.0,59,0.00,SCT,,0.15,WeatherDisplay:10.37,2013-03-06 18:07:00,
2013-03-06 10:08:00,53.5,39.9,30.07,East,95,4.6,4.6,60,0.00,SCT,,0.15,WeatherDisplay:10.37,2013-03-06 18:08:00,
2013-03-06 10:09:00,53.5,39.9,30.07,East,96,3.5,3.5,60,0.00,SCT,,0.15,WeatherDisplay:10.37,2013-03-06 18:09:00,
2013-03-06 10:10:00,53.5,39.9,30.07,East,83,3.5,3.5,60,0.00,SCT,,0.15,WeatherDisplay:10.37,2013-03-06 18:10:00,
2013-03-06 10:12:00,53.5,40.4,30.07,SSE,156,6.9,6.9,61,0.00,SCT,,0.15,WeatherDisplay:10.37,2013-03-06 18:12:00,
2013-03-06 10:14:00,53.4,39.9,30.07,ESE,118,6.9,6.9,60,0.00,SCT,,0.15,WeatherDisplay:10.37,2013-03-06 18:14:00,
2013-03-06 10:15:00,53.4,39.4,30.07,SE,145,6.9,6.9,59,0.00,SCT,,0.15,WeatherDisplay:10.37,2013-03-06 18:15:00,
2013-03-06 10:17:00,53.5,39.5,30.07,SSE,164,2.3,2.3,59,0.00,SCT,,0.15,WeatherDisplay:10.37,2013-03-06 18:17:00,
2013-03-06 10:19:00,53.6,39.6,30.08,ESE,121,2.3,2.3,59,0.00,SCT,,0.15,WeatherDisplay:10.37,2013-03-06 18:19:00,
2013-03-06 10:21:00,53.6,40.0,30.08,ESE,114,2.3,2.3,60,0.00,SCT,,0.15,WeatherDisplay:10.37,2013-03-06 18:21:00,
2013-03-06 10:25:00,53.8,39.8,30.07,SSE,149,5.8,5.8,59,0.00,SCT,,0.15,WeatherDisplay:10.37,2013-03-06 18:25:00,
2013-03-06 10:26:00,53.8,39.4,30.08,ENE,74,8.0,8.0,58,0.00,SCT,,0.15,WeatherDisplay:10.37,2013-03-06 18:26:00,
2013-03-06 10:28:00,53.8,38.9,30.08,ESE,123,8.1,8.1,57,0.00,SCT,,0.15,WeatherDisplay:10.37,2013-03-06 18:28:00,
2013-03-06 10:30:00,53.8,38.9,30.08,SSE,163,5.8,5.8,57,0.00,SCT,,0.15,WeatherDisplay:10.37,2013-03-06 18:30:00,
2013-03-06 10:32:00,53.8,38.9,30.07,SE,128,4.0,4.0,57,0.00,SCT,,0.15,WeatherDisplay:10.37,2013-03-06 18:32:00,
2013-03-06 10:35:00,53.9,39.0,30.08,ESE,116,4.6,4.6,57,0.00,SCT,,0.15,WeatherDisplay:10.37,2013-03-06 18:35:00,
2013-03-06 10:37:00,53.9,39.0,30.08,ESE,107,5.8,5.8,57,0.00,SCT,,0.15,WeatherDisplay:10.37,2013-03-06 18:37:00,
2013-03-06 10:40:00,54.0,39.1,30.08,SE,138,6.9,6.9,57,0.00,SCT,,0.15,WeatherDisplay:10.37,2013-03-06 18:40:00,
2013-03-06 10:41:00,54.1,39.2,30.08,South,169,6.9,6.9,57,0.00,SCT,,0.15,WeatherDisplay:10.37,2013-03-06 18:41:00,
2013-03-06 10:42:00,54.1,38.7,30.08,SE,132,4.6,4.6,56,0.00,SCT,,0.15,WeatherDisplay:10.37,2013-03-06 18:42:00,
2013-03-06 10:45:00,54.1,39.2,30.08,SE,134,2.0,5.0,57,0.00,SCT,,0.15,WeatherDisplay:10.37,2013-03-06 18:45:00,
2013-03-06 10:46:00,54.1,38.7,30.08,SSE,153,4.6,4.6,56,0.00,SCT,,0.15,WeatherDisplay:10.37,2013-03-06 18:46:00,
2013-03-06 10:48:00,54.1,39.2,30.08,ESE,102,4.6,4.6,57,0.00,SCT,,0.15,WeatherDisplay:10.37,2013-03-06 18:48:00,
2013-03-06 10:50:00,54.1,39.2,30.08,SE,132,0.0,7.0,57,0.00,SCT,,0.15,WeatherDisplay:10.37,2013-03-06 18:50:00,
2013-03-06 10:52:00,54.2,39.3,30.08,SE,124,5.0,5.0,57,0.00,SCT,,0.15,WeatherDisplay:10.37,2013-03-06 18:52:00,
2013-03-06 10:53:00,54.2,39.3,30.08,SE,131,5.8,5.8,57,0.00,SCT,,0.15,WeatherDisplay:10.37,2013-03-06 18:53:00,
2013-03-06 10:54:00,54.2,39.7,30.08,ENE,69,6.0,6.0,58,0.00,SCT,,0.15,WeatherDisplay:10.37,2013-03-06 18:54:00,
2013-03-06 10:55:00,54.3,39.8,30.08,East,82,5.8,5.8,58,0.00,SCT,,0.15,WeatherDisplay:10.37,2013-03-06 18:55:00,
2013-03-06 10:58:00,54.4,39.9,30.08,SSE,164,4.6,4.6,58,0.00,SCT,,0.15,WeatherDisplay:10.37,2013-03-06 18:58:00,
2013-03-06 10:59:00,54.4,39.5,30.08,ESE,117,4.6,4.6,57,0.00,SCT,,0.15,WeatherDisplay:10.37,2013-03-06 18:59:00,
2013-03-06 11:02:00,54.4,39.9,30.09,SE,132,5.8,5.8,58,0.00,SCT,,0.15,WeatherDisplay:10.37,2013-03-06 19:02:00,
2013-03-06 11:03:00,54.5,40.0,30.08,ENE,60,5.8,5.8,58,0.00,SCT,,0.15,WeatherDisplay:10.37,2013-03-06 19:03:00,
2013-03-06 11:04:00,54.5,40.0,30.09,East,94,5.0,5.0,58,0.00,SCT,,0.15,WeatherDisplay:10.37,2013-03-06 19:04:00,
2013-03-06 11:08:00,54.6,39.2,30.09,SSE,163,3.5,3.5,56,0.00,SCT,,0.15,WeatherDisplay:10.37,2013-03-06 19:08:00,
2013-03-06 11:09:00,54.6,39.7,30.09,SE,137,3.5,3.5,57,0.00,SCT,,0.15,WeatherDisplay:10.37,2013-03-06 19:09:00,
2013-03-06 11:10:00,54.7,39.3,30.09,SE,133,8.1,8.1,56,0.00,SCT,,0.15,WeatherDisplay:10.37,2013-03-06 19:10:00,
2013-03-06 11:14:00,54.8,39.4,30.09,ESE,110,3.5,3.5,56,0.00,SCT,,0.15,WeatherDisplay:10.37,2013-03-06 19:14:00,
2013-03-06 11:15:00,54.8,38.9,30.09,SSE,158,3.5,3.5,55,0.00,SCT,,0.15,WeatherDisplay:10.37,2013-03-06 19:15:00,
2013-03-06 11:19:00,54.8,38.9,30.09,SSW,201,8.1,8.1,55,0.00,SCT,,0.15,WeatherDisplay:10.37,2013-03-06 19:19:00,
2013-03-06 11:20:00,54.8,39.4,30.09,SSE,158,2.0,8.0,56,0.00,SCT,,0.15,WeatherDisplay:10.37,2013-03-06 19:20:00,
2013-03-06 11:24:00,54.8,39.4,30.09,ESE,121,1.2,1.2,56,0.00,SCT,,0.15,WeatherDisplay:10.37,2013-03-06 19:24:00,
2013-03-06 11:25:00,54.8,38.9,30.09,SE,134,0.0,9.0,55,0.00,SCT,,0.15,WeatherDisplay:10.37,2013-03-06 19:25:00,
2013-03-06 11:30:00,54.9,39.0,30.09,SSE,151,5.8,5.8,55,0.00,SCT,,0.15,WeatherDisplay:10.37,2013-03-06 19:30:00,
2013-03-06 11:35:00,55.0,39.6,30.09,SE,143,4.0,4.0,56,0.00,SCT,,0.15,WeatherDisplay:10.37,2013-03-06 19:35:00,
2013-03-06 11:36:00,55.0,39.6,30.09,ESE,119,3.5,3.5,56,0.00,SCT,,0.15,WeatherDisplay:10.37,2013-03-06 19:36:00,
2013-03-06 11:40:00,55.0,39.6,30.09,East,94,4.0,4.0,56,0.00,SCT,,0.15,WeatherDisplay:10.37,2013-03-06 19:40:00,
2013-03-06 11:41:00,55.0,39.1,30.09,ESE,122,3.5,3.5,55,0.00,SCT,,0.15,WeatherDisplay:10.37,2013-03-06 19:41:00,
2013-03-06 11:42:00,55.0,39.6,30.09,West,274,3.5,3.5,56,0.00,SCT,,0.15,WeatherDisplay:10.37,2013-03-06 19:42:00,
2013-03-06 11:46:00,55.0,39.1,30.09,SE,132,5.8,5.8,55,0.00,SCT,,0.15,WeatherDisplay:10.37,2013-03-06 19:46:00,
2013-03-06 11:47:00,55.0,39.1,30.09,ESE,113,5.8,5.8,55,0.00,SCT,,0.15,WeatherDisplay:10.37,2013-03-06 19:47:00,
2013-03-06 11:48:00,55.0,39.1,30.09,SE,125,6.0,6.0,55,0.00,SCT,,0.15,WeatherDisplay:10.37,2013-03-06 19:48:00,
2013-03-06 11:52:00,55.2,39.3,30.09,ENE,77,3.5,3.5,55,0.00,SCT,,0.15,WeatherDisplay:10.37,2013-03-06 19:52:00,
2013-03-06 11:53:00,55.3,39.4,30.09,East,94,1.2,1.2,55,0.00,SCT,,0.15,WeatherDisplay:10.37,2013-03-06 19:53:00,
2013-03-06 11:57:00,55.7,39.3,30.09,ESE,120,8.1,8.1,54,0.00,SCT,,0.15,WeatherDisplay:10.37,2013-03-06 19:57:00,
2013-03-06 11:58:00,55.7,38.8,30.09,SE,126,8.1,8.1,53,0.00,SCT,,0.15,WeatherDisplay:10.37,2013-03-06 19:58:00,
2013-03-06 12:03:00,56.1,39.7,30.09,SSE,153,3.5,3.5,54,0.00,SCT,,0.15,WeatherDisplay:10.37,2013-03-06 20:03:00,
2013-03-06 12:04:00,56.1,39.7,30.09,SSW,204,3.5,3.5,54,0.00,SCT,,0.15,WeatherDisplay:10.37,2013-03-06 20:04:00,
2013-03-06 12:08:00,56.2,39.3,30.08,SW,220,3.5,3.5,53,0.00,SCT,,0.15,WeatherDisplay:10.37,2013-03-06 20:08:00,
2013-03-06 12:09:00,56.2,38.8,30.09,SSE,164,3.5,3.5,52,0.00,SCT,,0.15,WeatherDisplay:10.37,2013-03-06 20:09:00,
2013-03-06 12:10:00,56.1,38.7,30.09,South,178,2.3,2.3,52,0.00,SCT,,0.15,WeatherDisplay:10.37,2013-03-06 20:10:00,
2013-03-06 12:13:00,56.2,38.8,30.08,SE,135,3.5,3.5,52,0.00,SCT,,0.15,WeatherDisplay:10.37,2013-03-06 20:13:00,
2013-03-06 12:14:00,56.2,38.8,30.08,SE,136,3.5,3.5,52,0.00,SCT,,0.15,WeatherDisplay:10.37,2013-03-06 20:14:00,
2013-03-06 12:15:00,56.2,38.8,30.08,SSE,165,2.3,2.3,52,0.00,SCT,,0.15,WeatherDisplay:10.37,2013-03-06 20:15:00,
2013-03-06 12:18:00,56.4,39.0,30.08,SE,142,4.6,4.6,52,0.00,SCT,,0.15,WeatherDisplay:10.37,2013-03-06 20:18:00,
2013-03-06 12:19:00,56.5,39.1,30.08,ESE,106,4.6,4.6,52,0.00,SCT,,0.15,WeatherDisplay:10.37,2013-03-06 20:19:00,
2013-03-06 12:20:00,56.5,38.6,30.08,SE,139,3.5,3.5,51,0.00,SCT,,0.15,WeatherDisplay:10.37,2013-03-06 20:20:00,
2013-03-06 12:24:00,56.7,38.8,30.08,SE,130,5.8,5.8,51,0.00,SCT,,0.15,WeatherDisplay:10.37,2013-03-06 20:24:00,
2013-03-06 12:25:00,56.7,39.3,30.08,SSE,154,0.0,6.0,52,0.00,SCT,,0.15,WeatherDisplay:10.37,2013-03-06 20:25:00,
2013-03-06 12:29:00,56.9,37.9,30.08,East,91,6.0,6.0,49,0.00,SCT,,0.15,WeatherDisplay:10.37,2013-03-06 20:29:00,
2013-03-06 12:30:00,56.9,38.4,30.08,ENE,64,5.8,5.8,50,0.00,SCT,,0.15,WeatherDisplay:10.37,2013-03-06 20:30:00,
2013-03-06 12:31:00,56.9,37.9,30.08,East,91,5.8,5.8,49,0.00,SCT,,0.15,WeatherDisplay:10.37,2013-03-06 20:31:00,
2013-03-06 12:34:00,56.9,37.9,30.08,East,101,4.6,4.6,49,0.00,SCT,,0.15,WeatherDisplay:10.37,2013-03-06 20:34:00,
2013-03-06 12:36:00,56.9,37.9,30.08,East,101,3.5,3.5,49,0.00,SCT,,0.15,WeatherDisplay:10.37,2013-03-06 20:36:00,
2013-03-06 12:40:00,57.2,38.2,30.08,North,5,4.6,4.6,49,0.00,SCT,,0.15,WeatherDisplay:10.37,2013-03-06 20:40:00,
2013-03-06 12:41:00,57.1,38.1,30.08,North,5,4.6,4.6,49,0.00,SCT,,0.15,WeatherDisplay:10.37,2013-03-06 20:41:00,
2013-03-06 12:46:00,57.4,37.9,30.09,ESE,107,2.3,2.3,48,0.00,SCT,,0.15,WeatherDisplay:10.37,2013-03-06 20:46:00,
2013-03-06 12:50:00,57.5,37.4,30.08,SSW,209,3.5,3.5,47,0.00,SCT,,0.15,WeatherDisplay:10.37,2013-03-06 20:50:00,
2013-03-06 12:51:00,57.5,37.9,30.08,East,80,3.5,3.5,48,0.00,SCT,,0.15,WeatherDisplay:10.37,2013-03-06 20:51:00,
2013-03-06 12:52:00,57.5,37.4,30.08,ESE,114,3.5,3.5,47,0.00,SCT,,0.15,WeatherDisplay:10.37,2013-03-06 20:52:00,
2013-03-06 12:55:00,57.5,37.4,30.08,ESE,121,5.8,5.8,47,0.00,SCT,,0.15,WeatherDisplay:10.37,2013-03-06 20:55:00,
2013-03-06 12:57:00,57.5,37.9,30.08,East,98,3.5,3.5,48,0.00,SCT,,0.15,WeatherDisplay:10.37,2013-03-06 20:57:00,
2013-03-06 12:58:00,57.5,37.9,30.08,SE,137,6.9,6.9,48,0.00,SCT,,0.15,WeatherDisplay:10.37,2013-03-06 20:58:00,
2013-03-06 12:59:00,57.5,37.4,30.08,NE,55,5.8,5.8,47,0.00,SCT,,0.15,WeatherDisplay:10.37,2013-03-06 20:59:00,
2013-03-06 13:00:00,57.4,37.3,30.08,ESE,103,5.8,5.8,47,0.00,SCT,,0.15,WeatherDisplay:10.37,2013-03-06 21:00:00,
2013-03-06 13:02:00,57.3,36.7,30.08,NE,45,3.5,3.5,46,0.00,SCT,,0.15,WeatherDisplay:10.37,2013-03-06 21:02:00,
2013-03-06 13:04:00,57.3,36.7,30.08,ESE,108,3.5,3.5,46,0.00,SCT,,0.15,WeatherDisplay:10.37,2013-03-06 21:04:00,
2013-03-06 13:05:00,57.3,37.2,30.08,ESE,106,2.0,4.0,47,0.00,SCT,,0.15,WeatherDisplay:10.37,2013-03-06 21:05:00,
2013-03-06 13:07:00,57.4,37.3,30.08,SSE,153,6.0,6.0,47,0.00,SCT,,0.15,WeatherDisplay:10.37,2013-03-06 21:07:00,
2013-03-06 13:09:00,57.5,37.9,30.08,East,79,5.8,5.8,48,0.00,SCT,,0.15,WeatherDisplay:10.37,2013-03-06 21:09:00,
2013-03-06 13:10:00,57.5,37.9,30.08,ESE,110,4.0,4.0,48,0.00,SCT,,0.15,WeatherDisplay:10.37,2013-03-06 21:10:00,
2013-03-06 13:11:00,57.5,37.9,30.08,SE,131,3.5,3.5,48,0.00,SCT,,0.15,WeatherDisplay:10.37,2013-03-06 21:11:00,
2013-03-06 13:12:00,57.6,38.0,30.08,SSW,198,3.5,3.5,48,0.00,SCT,,0.15,WeatherDisplay:10.37,2013-03-06 21:12:00,
2013-03-06 13:14:00,57.6,38.6,30.08,SSW,198,3.5,3.5,49,0.00,SCT,,0.15,WeatherDisplay:10.37,2013-03-06 21:14:00,
2013-03-06 13:15:00,57.6,38.0,30.08,SSW,209,3.5,3.5,48,0.00,SCT,,0.15,WeatherDisplay:10.37,2013-03-06 21:15:00,
2013-03-06 13:16:00,57.6,38.0,30.08,SSW,212,3.5,3.5,48,0.00,SCT,,0.15,WeatherDisplay:10.37,2013-03-06 21:16:00,
2013-03-06 13:18:00,57.6,38.6,30.08,SE,134,5.0,5.0,49,0.00,SCT,,0.15,WeatherDisplay:10.37,2013-03-06 21:18:00,
2013-03-06 13:19:00,57.6,38.0,30.08,SSE,162,4.6,4.6,48,0.00,SCT,,0.15,WeatherDisplay:10.37,2013-03-06 21:19:00,
2013-03-06 13:21:00,57.7,38.7,30.08,SSE,162,0.0,0.0,49,0.00,SCT,,0.15,WeatherDisplay:10.37,2013-03-06 21:21:00,
2013-03-06 13:24:00,57.8,38.2,30.08,SE,144,2.0,2.0,48,0.00,SCT,,0.15,WeatherDisplay:10.37,2013-03-06 21:24:00,
2013-03-06 13:26:00,58.0,38.4,30.08,East,83,3.5,3.5,48,0.00,SCT,,0.15,WeatherDisplay:10.37,2013-03-06 21:26:00,
2013-03-06 13:29:00,58.0,38.4,30.08,South,191,3.5,3.5,48,0.00,SCT,,0.15,WeatherDisplay:10.37,2013-03-06 21:29:00,
2013-03-06 13:30:00,58.0,38.4,30.08,ENE,68,3.5,3.5,48,0.00,SCT,,0.15,WeatherDisplay:10.37,2013-03-06 21:30:00,
2013-03-06 13:31:00,58.0,37.3,30.08,ENE,57,3.5,3.5,46,0.00,SCT,,0.15,WeatherDisplay:10.37,2013-03-06 21:31:00,
2013-03-06 13:34:00,58.0,38.4,30.08,ENE,69,1.2,1.2,48,0.00,SCT,,0.15,WeatherDisplay:10.37,2013-03-06 21:34:00,
2013-03-06 13:35:00,58.0,38.4,30.08,ENE,69,1.2,1.2,48,0.00,SCT,,0.15,WeatherDisplay:10.37,2013-03-06 21:35:00,
2013-03-06 13:36:00,58.1,37.4,30.08,SE,126,5.8,5.8,46,0.00,SCT,,0.15,WeatherDisplay:10.37,2013-03-06 21:36:00,
2013-03-06 13:40:00,58.1,38.5,30.08,SE,126,1.2,1.2,48,0.00,SCT,,0.15,WeatherDisplay:10.37,2013-03-06 21:40:00,
2013-03-06 13:41:00,58.2,38.6,30.08,South,189,2.0,2.0,48,0.00,SCT,,0.15,WeatherDisplay:10.37,2013-03-06 21:41:00,
2013-03-06 13:43:00,58.3,38.7,30.08,SSW,199,1.2,1.2,48,0.00,SCT,,0.15,WeatherDisplay:10.37,2013-03-06 21:43:00,
2013-03-06 13:45:00,58.3,37.6,30.07,SSW,201,2.3,2.3,46,0.00,SCT,,0.15,WeatherDisplay:10.37,2013-03-06 21:45:00,
2013-03-06 13:46:00,58.3,37.6,30.07,SSE,162,2.3,2.3,46,0.00,SCT,,0.15,WeatherDisplay:10.37,2013-03-06 21:46:00,
2013-03-06 13:49:00,58.4,38.8,30.07,South,190,3.5,3.5,48,0.00,SCT,,0.15,WeatherDisplay:10.37,2013-03-06 21:49:00,
2013-03-06 13:51:00,58.4,37.7,30.07,East,101,5.8,5.8,46,0.00,SCT,,0.15,WeatherDisplay:10.37,2013-03-06 21:51:00,
2013-03-06 13:53:00,58.4,37.7,30.07,ESE,120,3.5,3.5,46,0.00,SCT,,0.15,WeatherDisplay:10.37,2013-03-06 21:53:00,
2013-03-06 13:54:00,58.5,37.8,30.07,SE,134,3.5,3.5,46,0.00,SCT,,0.15,WeatherDisplay:10.37,2013-03-06 21:54:00,
2013-03-06 13:57:00,58.6,37.9,30.07,ESE,105,5.8,5.8,46,0.00,SCT,,0.15,WeatherDisplay:10.37,2013-03-06 21:57:00,
2013-03-06 13:58:00,58.6,37.9,30.07,NE,47,3.5,3.5,46,0.00,SCT,,0.15,WeatherDisplay:10.37,2013-03-06 21:58:00,
2013-03-06 13:59:00,58.6,37.9,30.07,NE,45,3.5,3.5,46,0.00,SCT,,0.15,WeatherDisplay:10.37,2013-03-06 21:59:00,
2013-03-06 14:01:00,58.5,37.2,30.07,ENE,78,2.3,2.3,45,0.00,SCT,,0.15,WeatherDisplay:10.37,2013-03-06 22:01:00,
2013-03-06 14:02:00,58.5,37.8,30.07,SSE,166,3.0,3.0,46,0.00,SCT,,0.15,WeatherDisplay:10.37,2013-03-06 22:02:00,
2013-03-06 14:04:00,58.6,38.4,30.07,ENE,61,3.5,3.5,47,0.00,SCT,,0.15,WeatherDisplay:10.37,2013-03-06 22:04:00,
2013-03-06 14:07:00,58.6,37.3,30.07,ENE,72,6.9,6.9,45,0.00,SCT,,0.15,WeatherDisplay:10.37,2013-03-06 22:07:00,
2013-03-06 14:08:00,58.6,37.3,30.07,ENE,77,6.9,6.9,45,0.00,SCT,,0.15,WeatherDisplay:10.37,2013-03-06 22:08:00,
2013-03-06 14:10:00,58.6,37.9,30.07,East,90,0.0,8.0,46,0.00,SCT,,0.15,WeatherDisplay:10.37,2013-03-06 22:10:00,
2013-03-06 14:11:00,58.6,37.9,30.07,East,99,2.3,2.3,46,0.00,SCT,,0.15,WeatherDisplay:10.37,2013-03-06 22:11:00,
2013-03-06 14:12:00,58.6,38.4,30.07,SE,145,1.2,1.2,47,0.00,SCT,,0.15,WeatherDisplay:10.37,2013-03-06 22:12:00,
2013-03-06 14:13:00,58.6,38.4,30.07,SE,145,2.3,2.3,47,0.00,SCT,,0.15,WeatherDisplay:10.37,2013-03-06 22:13:00,
2013-03-06 14:15:00,58.7,38.5,30.07,SW,216,2.3,2.3,47,0.00,SCT,,0.15,WeatherDisplay:10.37,2013-03-06 22:15:00,
2013-03-06 14:17:00,58.5,38.3,30.07,SW,217,0.0,0.0,47,0.00,SCT,,0.15,WeatherDisplay:10.37,2013-03-06 22:17:00,
2013-03-06 14:19:00,58.5,38.9,30.07,SW,217,1.0,1.0,48,0.00,SCT,,0.15,WeatherDisplay:10.37,2013-03-06 22:19:00,
2013-03-06 14:21:00,58.5,38.3,30.07,SE,132,2.3,2.3,47,0.00,SCT,,0.15,WeatherDisplay:10.37,2013-03-06 22:21:00,
2013-03-06 14:24:00,58.6,38.4,30.07,SE,132,0.0,0.1,47,0.00,SCT,,0.15,WeatherDisplay:10.37,2013-03-06 22:24:00,
2013-03-06 14:25:00,58.6,38.4,30.07,SSE,167,0.0,1.0,47,0.00,SCT,,0.15,WeatherDisplay:10.37,2013-03-06 22:25:00,
2013-03-06 14:26:00,58.6,39.0,30.07,SSW,198,4.0,4.0,48,0.00,SCT,,0.15,WeatherDisplay:10.37,2013-03-06 22:26:00,
2013-03-06 14:29:00,58.7,37.4,30.07,ESE,116,3.5,3.5,45,0.00,SCT,,0.15,WeatherDisplay:10.37,2013-03-06 22:29:00,
2013-03-06 14:30:00,58.7,37.4,30.07,ESE,103,3.0,3.0,45,0.00,SCT,,0.15,WeatherDisplay:10.37,2013-03-06 22:30:00,
2013-03-06 14:31:00,58.7,37.4,30.07,SE,131,4.6,4.6,45,0.00,SCT,,0.15,WeatherDisplay:10.37,2013-03-06 22:31:00,
2013-03-06 14:32:00,58.7,38.0,30.07,SE,131,1.2,1.2,46,0.00,SCT,,0.15,WeatherDisplay:10.37,2013-03-06 22:32:00,
2013-03-06 14:34:00,58.7,38.0,30.07,ESE,116,4.0,4.0,46,0.00,SCT,,0.15,WeatherDisplay:10.37,2013-03-06 22:34:00,
2013-03-06 14:35:00,58.7,38.0,30.07,SE,132,2.0,6.0,46,0.00,SCT,,0.15,WeatherDisplay:10.37,2013-03-06 22:35:00,
2013-03-06 14:37:00,58.7,38.5,30.07,ESE,107,3.0,3.0,47,0.00,SCT,,0.15,WeatherDisplay:10.37,2013-03-06 22:37:00,
2013-03-06 14:39:00,58.7,38.0,30.07,SE,127,3.5,3.5,46,0.00,SCT,,0.15,WeatherDisplay:10.37,2013-03-06 22:39:00,
2013-03-06 14:40:00,58.7,38.5,30.07,ESE,120,6.0,6.0,47,0.00,SCT,,0.15,WeatherDisplay:10.37,2013-03-06 22:40:00,
2013-03-06 14:42:00,58.6,37.9,30.07,SSE,149,5.8,5.8,46,0.00,SCT,,0.15,WeatherDisplay:10.37,2013-03-06 22:42:00,
2013-03-06 14:44:00,58.6,38.4,30.07,SE,141,3.5,3.5,47,0.00,SCT,,0.15,WeatherDisplay:10.37,2013-03-06 22:44:00,
2013-03-06 14:45:00,58.5,38.3,30.07,SSE,151,1.0,6.0,47,0.00,SCT,,0.15,WeatherDisplay:10.37,2013-03-06 22:45:00,
2013-03-06 14:47:00,58.5,38.3,30.07,South,187,3.5,3.5,47,0.00,SCT,,0.15,WeatherDisplay:10.37,2013-03-06 22:47:00,
2013-03-06 14:49:00,58.4,37.1,30.07,South,173,2.3,2.3,45,0.00,SCT,,0.15,WeatherDisplay:10.37,2013-03-06 22:49:00,
2013-03-06 14:50:00,58.4,37.1,30.07,South,171,0.0,5.0,45,0.00,SCT,,0.15,WeatherDisplay:10.37,2013-03-06 22:50:00,
2013-03-06 14:52:00,58.5,37.2,30.07,SE,134,3.5,3.5,45,0.00,SCT,,0.15,WeatherDisplay:10.37,2013-03-06 22:52:00,
2013-03-06 14:53:00,58.5,37.2,30.07,SE,130,6.0,6.0,45,0.00,SCT,,0.15,WeatherDisplay:10.37,2013-03-06 22:53:00,
2013-03-06 14:54:00,58.5,36.6,30.07,SE,139,5.8,5.8,44,0.00,SCT,,0.15,WeatherDisplay:10.37,2013-03-06 22:54:00,
2013-03-06 14:55:00,58.5,36.6,30.07,SE,141,2.0,6.0,44,0.00,SCT,,0.15,WeatherDisplay:10.37,2013-03-06 22:55:00,
2013-03-06 14:57:00,58.5,37.8,30.07,SE,145,1.2,0.0,46,0.00,SCT,,0.15,WeatherDisplay:10.37,2013-03-06 22:57:00,
2013-03-06 14:58:00,58.2,36.9,30.07,SSW,195,3.5,3.5,45,0.00,SCT,,0.15,WeatherDisplay:10.37,2013-03-06 22:58:00,
2013-03-06 15:00:00,58.2,37.5,30.07,SE,124,3.5,3.5,46,0.00,SCT,,0.15,WeatherDisplay:10.37,2013-03-06 23:00:00,
2013-03-06 15:01:00,58.3,37.6,30.07,SSE,155,2.3,2.3,46,0.00,SCT,,0.15,WeatherDisplay:10.37,2013-03-06 23:01:00,
2013-03-06 15:02:00,58.3,37.6,30.07,SE,141,2.3,2.3,46,0.00,SCT,,0.15,WeatherDisplay:10.37,2013-03-06 23:02:00,
2013-03-06 15:03:00,58.2,36.9,30.07,SE,145,1.2,1.2,45,0.00,SCT,,0.15,WeatherDisplay:10.37,2013-03-06 23:03:00,
2013-03-06 15:05:00,58.2,36.9,30.07,SSW,193,2.3,2.3,45,0.00,SCT,,0.15,WeatherDisplay:10.37,2013-03-06 23:05:00,
2013-03-06 15:06:00,58.2,37.5,30.07,South,180,2.3,2.3,46,0.00,SCT,,0.15,WeatherDisplay:10.37,2013-03-06 23:06:00,
2013-03-06 15:07:00,58.2,36.9,30.07,SSE,153,3.5,3.5,45,0.00,SCT,,0.15,WeatherDisplay:10.37,2013-03-06 23:07:00,
2013-03-06 15:09:00,58.2,38.1,30.07,South,189,1.2,1.2,47,0.00,SCT,,0.15,WeatherDisplay:10.37,2013-03-06 23:09:00,
2013-03-06 15:10:00,58.2,36.9,30.07,South,184,1.2,1.2,45,0.00,SCT,,0.15,WeatherDisplay:10.37,2013-03-06 23:10:00,
2013-03-06 15:11:00,58.1,36.9,30.07,South,184,0.0,0.1,45,0.00,SCT,,0.15,WeatherDisplay:10.37,2013-03-06 23:11:00,
2013-03-06 15:13:00,58.1,36.9,30.07,South,188,1.2,0.0,45,0.00,SCT,,0.15,WeatherDisplay:10.37,2013-03-06 23:13:00,
2013-03-06 15:14:00,58.1,37.4,30.07,SE,142,5.8,5.8,46,0.00,SCT,,0.15,WeatherDisplay:10.37,2013-03-06 23:14:00,
2013-03-06 15:16:00,58.2,37.5,30.07,SE,127,3.5,3.5,46,0.00,SCT,,0.15,WeatherDisplay:10.37,2013-03-06 23:16:00,
2013-03-06 15:18:00,58.2,36.9,30.07,ESE,119,0.0,0.0,45,0.00,SCT,,0.15,WeatherDisplay:10.37,2013-03-06 23:18:00,
2013-03-06 15:19:00,58.2,36.4,30.07,ESE,121,0.0,0.0,44,0.00,SCT,,0.15,WeatherDisplay:10.37,2013-03-06 23:19:00,
2013-03-06 15:21:00,58.1,37.4,30.07,South,181,1.2,1.2,46,0.00,SCT,,0.15,WeatherDisplay:10.37,2013-03-06 23:21:00,
2013-03-06 15:22:00,58.2,37.5,30.07,SSW,208,1.2,1.2,46,0.00,SCT,,0.15,WeatherDisplay:10.37,2013-03-06 23:22:00,
2013-03-06 15:24:00,58.3,37.6,30.07,SE,127,2.3,2.3,46,0.00,SCT,,0.15,WeatherDisplay:10.37,2013-03-06 23:24:00,
2013-03-06 15:27:00,58.1,37.4,30.07,South,171,2.3,2.3,46,0.00,SCT,,0.15,WeatherDisplay:10.37,2013-03-06 23:27:00,
2013-03-06 15:29:00,58.1,36.9,30.07,South,169,1.2,1.2,45,0.00,SCT,,0.15,WeatherDisplay:10.37,2013-03-06 23:29:00,
2013-03-06 15:30:00,58.2,37.5,30.07,South,169,1.2,1.2,46,0.00,SCT,,0.15,WeatherDisplay:10.37,2013-03-06 23:30:00,
2013-03-06 15:33:00,58.2,36.9,30.07,SE,134,3.5,3.5,45,0.00,SCT,,0.15,WeatherDisplay:10.37,2013-03-06 23:33:00,
2013-03-06 15:34:00,58.3,37.6,30.07,SE,137,4.0,4.0,46,0.00,SCT,,0.15,WeatherDisplay:10.37,2013-03-06 23:34:00,
2013-03-06 15:35:00,58.2,36.9,30.07,SE,137,6.9,6.9,45,0.00,SCT,,0.15,WeatherDisplay:10.37,2013-03-06 23:35:00,
2013-03-06 15:38:00,58.2,36.4,30.07,SE,135,6.0,6.0,44,0.00,SCT,,0.15,WeatherDisplay:10.37,2013-03-06 23:38:00,
2013-03-06 15:39:00,58.3,36.5,30.07,South,181,5.8,5.8,44,0.00,SCT,,0.15,WeatherDisplay:10.37,2013-03-06 23:39:00,
2013-03-06 15:40:00,58.3,36.5,30.07,SE,134,4.6,4.6,44,0.00,SCT,,0.15,WeatherDisplay:10.37,2013-03-06 23:40:00,
2013-03-06 15:44:00,58.3,37.0,30.07,East,85,2.3,2.3,45,0.00,SCT,,0.15,WeatherDisplay:10.37,2013-03-06 23:44:00,
2013-03-06 15:45:00,58.3,37.0,30.07,SE,141,0.0,3.0,45,0.00,SCT,,0.15,WeatherDisplay:10.37,2013-03-06 23:45:00,
2013-03-06 15:46:00,58.3,37.0,30.07,SSE,162,2.3,0.0,45,0.00,SCT,,0.15,WeatherDisplay:10.37,2013-03-06 23:46:00,
2013-03-06 15:48:00,58.3,37.0,30.07,ENE,75,4.0,4.0,45,0.00,SCT,,0.15,WeatherDisplay:10.37,2013-03-06 23:48:00,
2013-03-06 15:49:00,58.3,37.0,30.07,ENE,71,3.5,3.5,45,0.00,SCT,,0.15,WeatherDisplay:10.37,2013-03-06 23:49:00,
2013-03-06 15:50:00,58.3,37.0,30.07,ESE,107,1.0,4.0,45,0.00,SCT,,0.15,WeatherDisplay:10.37,2013-03-06 23:50:00,
2013-03-06 15:51:00,58.2,37.5,30.07,ENE,69,3.5,3.5,46,0.00,SCT,,0.15,WeatherDisplay:10.37,2013-03-06 23:51:00,
2013-03-06 15:54:00,58.2,37.5,30.07,ESE,119,5.8,5.8,46,0.00,SCT,,0.15,WeatherDisplay:10.37,2013-03-06 23:54:00,
2013-03-06 15:55:00,58.2,37.5,30.07,East,96,1.0,6.0,46,0.00,SCT,,0.15,WeatherDisplay:10.37,2013-03-06 23:55:00,
2013-03-06 15:56:00,58.1,36.9,30.07,ESE,103,4.0,4.0,45,0.00,SCT,,0.15,WeatherDisplay:10.37,2013-03-06 23:56:00,
2013-03-06 15:59:00,58.1,37.4,30.06,SE,130,5.8,5.8,46,0.00,SCT,,0.15,WeatherDisplay:10.37,2013-03-06 23:59:00,
2013-03-06 16:00:00,58.1,37.4,30.06,ESE,109,1.0,6.0,46,0.00,SCT,,0.15,WeatherDisplay:10.37,2013-03-07 00:00:00,
2013-03-06 16:02:00,58.1,38.0,30.06,SE,135,3.5,3.5,47,0.00,SCT,,0.15,WeatherDisplay:10.37,2013-03-07 00:02:00,
2013-03-06 16:04:00,58.2,38.1,30.06,SSE,149,2.3,2.3,47,0.00,SCT,,0.15,WeatherDisplay:10.37,2013-03-07 00:04:00,
2013-03-06 16:05:00,58.2,38.0,30.06,ESE,123,0.0,4.0,47,0.00,SCT,,0.15,WeatherDisplay:10.37,2013-03-07 00:05:00,
2013-03-06 16:07:00,58.2,37.5,30.06,SE,140,4.6,4.6,46,0.00,SCT,,0.15,WeatherDisplay:10.37,2013-03-07 00:07:00,
2013-03-06 16:09:00,58.1,37.4,30.07,SE,136,5.0,5.0,46,0.00,SCT,,0.15,WeatherDisplay:10.37,2013-03-07 00:09:00,
2013-03-06 16:10:00,58.1,38.0,30.07,SE,129,4.6,4.6,47,0.00,SCT,,0.15,WeatherDisplay:10.37,2013-03-07 00:10:00,
2013-03-06 16:12:00,58.1,38.0,30.06,SE,129,2.3,2.3,47,0.00,SCT,,0.15,WeatherDisplay:10.37,2013-03-07 00:12:00,
2013-03-06 16:13:00,58.1,38.5,30.06,South,170,3.5,3.5,48,0.00,SCT,,0.15,WeatherDisplay:10.37,2013-03-07 00:13:00,
2013-03-06 16:14:00,58.1,38.5,30.06,SSE,152,3.0,3.0,48,0.00,SCT,,0.15,WeatherDisplay:10.37,2013-03-07 00:14:00,
2013-03-06 16:15:00,58.1,37.4,30.06,SSE,163,4.6,4.6,46,0.00,SCT,,0.15,WeatherDisplay:10.37,2013-03-07 00:15:00,
2013-03-06 16:18:00,58.0,38.4,30.06,ESE,123,1.2,0.0,48,0.00,SCT,,0.15,WeatherDisplay:10.37,2013-03-07 00:18:00,
2013-03-06 16:19:00,57.9,37.8,30.06,ESE,123,0.0,0.0,47,0.00,SCT,,0.15,WeatherDisplay:10.37,2013-03-07 00:19:00,
2013-03-06 16:20:00,57.9,38.3,30.06,SE,130,0.0,0.2,48,0.00,SCT,,0.15,WeatherDisplay:10.37,2013-03-07 00:20:00,
2013-03-06 16:21:00,57.8,38.2,30.06,SE,131,0.0,0.2,48,0.00,SCT,,0.15,WeatherDisplay:10.37,2013-03-07 00:21:00,
2013-03-06 16:24:00,57.9,38.3,30.06,SSE,148,2.3,2.3,48,0.00,SCT,,0.15,WeatherDisplay:10.37,2013-03-07 00:24:00,
2013-03-06 16:25:00,57.9,37.8,30.06,SSE,168,4.6,4.6,47,0.00,SCT,,0.15,WeatherDisplay:10.37,2013-03-07 00:25:00,
2013-03-06 16:29:00,57.9,38.3,30.06,ESE,121,3.5,3.5,48,0.00,SCT,,0.15,WeatherDisplay:10.37,2013-03-07 00:29:00,
2013-03-06 16:30:00,57.9,38.3,30.06,SSW,205,3.0,3.0,48,0.00,SCT,,0.15,WeatherDisplay:10.37,2013-03-07 00:30:00,
2013-03-06 16:34:00,57.8,38.2,30.06,SSW,212,1.2,1.2,48,0.00,SCT,,0.15,WeatherDisplay:10.37,2013-03-07 00:34:00,
2013-03-06 16:35:00,57.8,38.2,30.06,SSW,198,0.0,4.0,48,0.00,SCT,,0.15,WeatherDisplay:10.37,2013-03-07 00:35:00,
2013-03-06 16:36:00,57.6,38.0,30.06,SE,129,1.2,1.2,48,0.00,SCT,,0.15,WeatherDisplay:10.37,2013-03-07 00:36:00,
2013-03-06 16:39:00,57.5,37.9,30.06,SE,143,6.9,6.9,48,0.00,SCT,,0.15,WeatherDisplay:10.37,2013-03-07 00:39:00,
2013-03-06 16:40:00,57.4,37.9,30.06,ESE,122,3.5,3.5,48,0.00,SCT,,0.15,WeatherDisplay:10.37,2013-03-07 00:40:00,
2013-03-06 16:41:00,57.4,37.9,30.06,SSE,161,1.2,1.2,48,0.00,SCT,,0.15,WeatherDisplay:10.37,2013-03-07 00:41:00,
2013-03-06 16:42:00,57.4,37.9,30.06,ESE,120,1.2,1.2,48,0.00,SCT,,0.15,WeatherDisplay:10.37,2013-03-07 00:42:00,
2013-03-06 16:44:00,57.3,37.2,30.06,SSE,158,1.2,1.2,47,0.00,SCT,,0.15,WeatherDisplay:10.37,2013-03-07 00:44:00,
2013-03-06 16:46:00,57.2,37.7,30.06,SSE,150,3.5,3.5,48,0.00,SCT,,0.15,WeatherDisplay:10.37,2013-03-07 00:46:00,
2013-03-06 16:47:00,57.1,38.1,30.06,ESE,119,3.5,3.5,49,0.00,SCT,,0.15,WeatherDisplay:10.37,2013-03-07 00:47:00,
2013-03-06 16:49:00,57.0,37.5,30.06,SW,218,1.2,1.2,48,0.00,SCT,,0.15,WeatherDisplay:10.37,2013-03-07 00:49:00,
2013-03-06 16:51:00,57.0,38.0,30.06,SSE,165,1.2,1.2,49,0.00,SCT,,0.15,WeatherDisplay:10.37,2013-03-07 00:51:00,
2013-03-06 16:52:00,57.0,38.0,30.06,SE,135,2.0,2.0,49,0.00,SCT,,0.15,WeatherDisplay:10.37,2013-03-07 00:52:00,
2013-03-06 16:55:00,56.9,37.9,30.06,SSW,195,3.5,3.5,49,0.00,SCT,,0.15,WeatherDisplay:10.37,2013-03-07 00:55:00,
2013-03-06 16:57:00,56.8,38.3,30.06,South,173,3.5,3.5,50,0.00,SCT,,0.15,WeatherDisplay:10.37,2013-03-07 00:57:00,
2013-03-06 16:58:00,56.9,38.4,30.06,ESE,116,3.5,3.5,50,0.00,SCT,,0.15,WeatherDisplay:10.37,2013-03-07 00:58:00,
2013-03-06 17:02:00,56.8,38.3,30.06,SE,133,0.0,0.0,50,0.00,SCT,,0.15,WeatherDisplay:10.37,2013-03-07 01:02:00,
2013-03-06 17:03:00,56.7,37.7,30.06,SE,133,0.0,0.0,49,0.00,SCT,,0.15,WeatherDisplay:10.37,2013-03-07 01:03:00,
2013-03-06 17:04:00,56.7,37.7,30.06,SE,133,1.2,0.0,49,0.00,SCT,,0.15,WeatherDisplay:10.37,2013-03-07 01:04:00,
2013-03-06 17:07:00,56.6,38.2,30.06,South,186,1.2,1.2,50,0.00,SCT,,0.15,WeatherDisplay:10.37,2013-03-07 01:07:00,
2013-03-06 17:08:00,56.6,38.2,30.05,South,185,1.2,1.2,50,0.00,SCT,,0.15,WeatherDisplay:10.37,2013-03-07 01:08:00,
2013-03-06 17:09:00,56.5,38.1,30.06,South,185,1.0,1.0,50,0.00,SCT,,0.15,WeatherDisplay:10.37,2013-03-07 01:09:00,
2013-03-06 17:12:00,56.5,38.1,30.05,SSE,162,2.3,2.3,50,0.00,SCT,,0.15,WeatherDisplay:10.37,2013-03-07 01:12:00,
2013-03-06 17:13:00,56.5,38.1,30.05,SSE,161,2.3,2.3,50,0.00,SCT,,0.15,WeatherDisplay:10.37,2013-03-07 01:13:00,
2013-03-06 17:14:00,56.4,38.0,30.05,SSW,201,0.0,0.3,50,0.00,SCT,,0.15,WeatherDisplay:10.37,2013-03-07 01:14:00,
2013-03-06 17:15:00,56.4,38.0,30.05,SSE,161,2.3,2.3,50,0.00,SCT,,0.15,WeatherDisplay:10.37,2013-03-07 01:15:00,
2013-03-06 17:18:00,56.3,37.9,30.05,SSW,199,3.5,3.5,50,0.00,SCT,,0.15,WeatherDisplay:10.37,2013-03-07 01:18:00,
2013-03-06 17:20:00,56.2,37.8,30.05,SSW,199,0.0,0.0,50,0.00,SCT,,0.15,WeatherDisplay:10.37,2013-03-07 01:20:00,
2013-03-06 17:21:00,56.2,37.8,30.05,SSW,199,0.0,0.0,50,0.00,SCT,,0.15,WeatherDisplay:10.37,2013-03-07 01:21:00,
2013-03-06 17:23:00,56.1,38.2,30.05,SSW,199,1.2,1.2,51,0.00,SCT,,0.15,WeatherDisplay:10.37,2013-03-07 01:23:00,
2013-03-06 17:24:00,56.0,38.1,30.05,SSW,199,0.0,0.0,51,0.00,SCT,,0.15,WeatherDisplay:10.37,2013-03-07 01:24:00,
2013-03-06 17:26:00,56.0,38.1,30.05,South,186,2.3,2.3,51,0.00,SCT,,0.15,WeatherDisplay:10.37,2013-03-07 01:26:00,
2013-03-06 17:29:00,55.8,38.4,30.05,South,191,0.0,0.2,52,0.00,SCT,,0.15,WeatherDisplay:10.37,2013-03-07 01:29:00,
2013-03-06 17:31:00,55.7,37.8,30.05,SE,146,2.3,2.3,51,0.00,SCT,,0.15,WeatherDisplay:10.37,2013-03-07 01:31:00,
2013-03-06 17:35:00,55.6,38.2,30.05,South,171,0.0,2.0,52,0.00,SCT,,0.15,WeatherDisplay:10.37,2013-03-07 01:35:00,
2013-03-06 17:36:00,55.6,38.2,30.05,SE,126,3.0,3.0,52,0.00,SCT,,0.15,WeatherDisplay:10.37,2013-03-07 01:36:00,
2013-03-06 17:37:00,55.6,38.7,30.05,SE,134,3.5,3.5,53,0.00,SCT,,0.15,WeatherDisplay:10.37,2013-03-07 01:37:00,
2013-03-06 17:41:00,55.5,38.6,30.05,SE,134,1.2,0.0,53,0.00,SCT,,0.15,WeatherDisplay:10.37,2013-03-07 01:41:00,
2013-03-06 17:42:00,55.4,38.1,30.05,SE,135,0.0,0.2,52,0.00,SCT,,0.15,WeatherDisplay:10.37,2013-03-07 01:42:00,
2013-03-06 17:46:00,55.3,38.0,30.05,SE,135,3.5,3.5,52,0.00,SCT,,0.15,WeatherDisplay:10.37,2013-03-07 01:46:00,
2013-03-06 17:47:00,55.2,38.4,30.05,SE,135,0.0,0.0,53,0.00,SCT,,0.15,WeatherDisplay:10.37,2013-03-07 01:47:00,
2013-03-06 17:48:00,55.2,38.4,30.05,SE,135,0.0,0.0,53,0.00,SCT,,0.15,WeatherDisplay:10.37,2013-03-07 01:48:00,
2013-03-06 17:51:00,55.2,38.4,30.05,SE,135,0.0,0.0,53,0.00,SCT,,0.15,WeatherDisplay:10.37,2013-03-07 01:51:00,
2013-03-06 17:52:00,55.1,38.3,30.05,SE,135,0.0,0.0,53,0.00,SCT,,0.15,WeatherDisplay:10.37,2013-03-07 01:52:00,
2013-03-06 17:53:00,55.0,38.2,30.05,SE,135,0.0,0.0,53,0.00,SCT,,0.15,WeatherDisplay:10.37,2013-03-07 01:53:00,
2013-03-06 17:55:00,55.0,38.6,30.05,SE,135,0.0,0.0,54,0.00,SCT,,0.15,WeatherDisplay:10.37,2013-03-07 01:55:00,
2013-03-06 17:56:00,55.0,38.2,30.05,South,173,0.0,0.0,53,0.00,SCT,,0.15,WeatherDisplay:10.37,2013-03-07 01:56:00,
2013-03-06 17:57:00,54.9,38.1,30.05,South,173,0.0,0.0,53,0.00,SCT,,0.15,WeatherDisplay:10.37,2013-03-07 01:57:00,
2013-03-06 17:58:00,54.9,38.1,30.05,South,173,0.0,0.0,53,0.00,SCT,,0.15,WeatherDisplay:10.37,2013-03-07 01:58:00,
2013-03-06 18:00:00,54.8,38.5,30.05,South,173,0.0,0.0,54,0.00,SCT,,0.15,WeatherDisplay:10.37,2013-03-07 02:00:00,
2013-03-06 18:02:00,54.7,37.9,30.05,South,173,0.0,0.0,53,0.00,SCT,,0.15,WeatherDisplay:10.37,2013-03-07 02:02:00,
2013-03-06 18:03:00,54.6,38.3,30.05,ESE,107,1.2,0.0,54,0.00,SCT,,0.15,WeatherDisplay:10.37,2013-03-07 02:03:00,
2013-03-06 18:04:00,54.5,38.2,30.05,ESE,107,0.0,0.0,54,0.00,SCT,,0.15,WeatherDisplay:10.37,2013-03-07 02:04:00,
2013-03-06 18:05:00,54.5,38.7,30.05,ESE,118,0.0,0.0,55,0.00,SCT,,0.15,WeatherDisplay:10.37,2013-03-07 02:05:00,
2013-03-06 18:07:00,54.4,38.1,30.05,ESE,123,1.2,0.0,54,0.00,SCT,,0.15,WeatherDisplay:10.37,2013-03-07 02:07:00,
2013-03-06 18:08:00,54.4,38.1,30.05,ESE,123,0.0,0.0,54,0.00,SCT,,0.15,WeatherDisplay:10.37,2013-03-07 02:08:00,
2013-03-06 18:09:00,54.3,38.0,30.05,ESE,123,0.0,0.0,54,0.00,SCT,,0.15,WeatherDisplay:10.37,2013-03-07 02:09:00,
2013-03-06 18:10:00,54.3,38.0,30.05,ESE,123,1.2,0.0,54,0.00,SCT,,0.15,WeatherDisplay:10.37,2013-03-07 02:10:00,
2013-03-06 18:13:00,54.2,37.9,30.05,ESE,123,1.2,1.2,54,0.00,SCT,,0.15,WeatherDisplay:10.37,2013-03-07 02:13:00,
2013-03-06 18:14:00,54.2,37.9,30.05,ESE,123,0.0,0.0,54,0.00,SCT,,0.15,WeatherDisplay:10.37,2013-03-07 02:14:00,
2013-03-06 18:15:00,54.1,37.8,30.05,ESE,123,0.0,0.0,54,0.00,SCT,,0.15,WeatherDisplay:10.37,2013-03-07 02:15:00,
2013-03-06 18:19:00,54.0,38.2,30.05,ESE,123,0.0,0.0,55,0.00,SCT,,0.15,WeatherDisplay:10.37,2013-03-07 02:19:00,
2013-03-06 18:20:00,54.0,38.2,30.05,ESE,123,0.0,1.0,55,0.00,SCT,,0.15,WeatherDisplay:10.37,2013-03-07 02:20:00,
2013-03-06 18:21:00,53.9,38.1,30.05,ESE,123,1.2,1.2,55,0.00,SCT,,0.15,WeatherDisplay:10.37,2013-03-07 02:21:00,
2013-03-06 18:24:00,53.8,38.0,30.05,ESE,123,0.0,0.0,55,0.00,SCT,,0.15,WeatherDisplay:10.37,2013-03-07 02:24:00,
2013-03-06 18:25:00,53.7,37.9,30.05,ESE,123,0.0,0.0,55,0.00,SCT,,0.15,WeatherDisplay:10.37,2013-03-07 02:25:00,
2013-03-06 18:27:00,53.6,37.8,30.05,ESE,123,0.0,0.0,55,0.00,SCT,,0.15,WeatherDisplay:10.37,2013-03-07 02:27:00,
2013-03-06 18:29:00,53.6,38.3,30.05,ESE,123,0.0,0.0,56,0.00,SCT,,0.15,WeatherDisplay:10.37,2013-03-07 02:29:00,
2013-03-06 18:30:00,53.6,38.3,30.05,ESE,123,0.0,0.0,56,0.00,SCT,,0.15,WeatherDisplay:10.37,2013-03-07 02:30:00,
2013-03-06 18:32:00,53.5,38.2,30.05,ESE,123,0.0,0.0,56,0.00,SCT,,0.15,WeatherDisplay:10.37,2013-03-07 02:32:00,
2013-03-06 18:34:00,53.5,38.2,30.05,ESE,123,0.0,0.0,56,0.00,SCT,,0.15,WeatherDisplay:10.37,2013-03-07 02:34:00,
2013-03-06 18:35:00,53.4,38.5,30.05,ESE,123,0.0,0.0,57,0.00,SCT,,0.15,WeatherDisplay:10.37,2013-03-07 02:35:00,
2013-03-06 18:36:00,53.4,38.5,30.05,ESE,123,0.0,0.0,57,0.00,SCT,,0.15,WeatherDisplay:10.37,2013-03-07 02:36:00,
2013-03-06 18:39:00,53.4,38.5,30.05,ESE,123,0.0,0.0,57,0.00,SCT,,0.15,WeatherDisplay:10.37,2013-03-07 02:39:00,
2013-03-06 18:40:00,53.4,38.5,30.05,ESE,123,0.0,0.0,57,0.00,SCT,,0.15,WeatherDisplay:10.37,2013-03-07 02:40:00,
2013-03-06 18:41:00,53.3,38.4,30.05,ESE,123,0.0,0.0,57,0.00,SCT,,0.15,WeatherDisplay:10.37,2013-03-07 02:41:00,
2013-03-06 18:42:00,53.3,38.4,30.05,ESE,123,0.0,0.0,57,0.00,SCT,,0.15,WeatherDisplay:10.37,2013-03-07 02:42:00,
2013-03-06 18:44:00,53.2,38.8,30.05,ESE,123,0.0,0.0,58,0.00,SCT,,0.15,WeatherDisplay:10.37,2013-03-07 02:44:00,
2013-03-06 18:45:00,53.2,38.8,30.05,ESE,123,0.0,0.0,58,0.00,SCT,,0.15,WeatherDisplay:10.37,2013-03-07 02:45:00,
2013-03-06 18:46:00,53.2,38.4,30.05,ESE,123,0.0,0.0,57,0.00,SCT,,0.15,WeatherDisplay:10.37,2013-03-07 02:46:00,
2013-03-06 18:47:00,53.1,38.7,30.05,ESE,123,0.0,0.0,58,0.00,SCT,,0.15,WeatherDisplay:10.37,2013-03-07 02:47:00,
2013-03-06 18:50:00,53.0,38.6,30.05,ESE,123,0.0,0.0,58,0.00,SCT,,0.15,WeatherDisplay:10.37,2013-03-07 02:50:00,
2013-03-06 18:51:00,52.9,38.5,30.05,ESE,123,0.0,0.0,58,0.00,SCT,,0.15,WeatherDisplay:10.37,2013-03-07 02:51:00,
2013-03-06 18:52:00,52.9,38.5,30.05,ESE,123,0.0,0.0,58,0.00,SCT,,0.15,WeatherDisplay:10.37,2013-03-07 02:52:00,
2013-03-06 18:55:00,52.8,38.9,30.05,ESE,123,0.0,0.0,59,0.00,SCT,,0.15,WeatherDisplay:10.37,2013-03-07 02:55:00,
2013-03-06 18:56:00,52.7,38.8,30.04,ESE,123,0.0,0.0,59,0.00,SCT,,0.15,WeatherDisplay:10.37,2013-03-07 02:56:00,
2013-03-06 18:58:00,52.7,38.8,30.04,ESE,123,0.0,0.0,59,0.00,SCT,,0.15,WeatherDisplay:10.37,2013-03-07 02:58:00,
2013-03-06 19:00:00,52.6,38.7,30.05,ESE,123,0.0,0.0,59,0.00,SCT,,0.15,WeatherDisplay:10.37,2013-03-07 03:00:00,
2013-03-06 19:02:00,52.4,38.5,30.05,ESE,123,0.0,0.0,59,0.00,SCT,,0.15,WeatherDisplay:10.37,2013-03-07 03:02:00,
2013-03-06 19:03:00,52.4,38.5,30.05,ESE,123,0.0,0.0,59,0.00,SCT,,0.15,WeatherDisplay:10.37,2013-03-07 03:03:00,
2013-03-06 19:05:00,52.2,38.3,30.05,ESE,123,0.0,0.0,59,0.00,SCT,,0.15,WeatherDisplay:10.37,2013-03-07 03:05:00,
2013-03-06 19:07:00,52.1,38.2,30.05,ESE,123,0.0,0.0,59,0.00,SCT,,0.15,WeatherDisplay:10.37,2013-03-07 03:07:00,
2013-03-06 19:08:00,52.0,38.1,30.05,ESE,123,0.0,0.0,59,0.00,SCT,,0.15,WeatherDisplay:10.37,2013-03-07 03:08:00,
2013-03-06 19:10:00,52.0,38.1,30.05,ESE,123,0.0,0.0,59,0.00,SCT,,0.15,WeatherDisplay:10.37,2013-03-07 03:10:00,
2013-03-06 19:13:00,51.9,38.0,30.05,ESE,123,0.0,0.0,59,0.00,SCT,,0.15,WeatherDisplay:10.37,2013-03-07 03:13:00,
2013-03-06 19:14:00,51.8,37.9,30.05,ESE,123,0.0,0.0,59,0.00,SCT,,0.15,WeatherDisplay:10.37,2013-03-07 03:14:00,
2013-03-06 19:15:00,51.7,37.8,30.05,ESE,123,0.0,0.0,59,0.00,SCT,,0.15,WeatherDisplay:10.37,2013-03-07 03:15:00,
2013-03-06 19:18:00,51.6,37.7,30.05,ESE,123,0.0,0.0,59,0.00,SCT,,0.15,WeatherDisplay:10.37,2013-03-07 03:18:00,
2013-03-06 19:19:00,51.5,37.6,30.05,ESE,123,0.0,0.0,59,0.00,SCT,,0.15,WeatherDisplay:10.37,2013-03-07 03:19:00,
2013-03-06 19:20:00,51.5,38.1,30.05,ESE,123,0.0,0.0,60,0.00,SCT,,0.15,WeatherDisplay:10.37,2013-03-07 03:20:00,
2013-03-06 19:23:00,51.3,37.9,30.05,ESE,123,0.0,0.0,60,0.00,SCT,,0.15,WeatherDisplay:10.37,2013-03-07 03:23:00,
2013-03-06 19:24:00,51.3,37.9,30.05,ESE,123,0.0,0.0,60,0.00,SCT,,0.15,WeatherDisplay:10.37,2013-03-07 03:24:00,
2013-03-06 19:25:00,51.2,37.8,30.05,ESE,123,0.0,0.0,60,0.00,SCT,,0.15,WeatherDisplay:10.37,2013-03-07 03:25:00,
2013-03-06 19:28:00,51.2,37.8,30.05,ESE,123,0.0,0.0,60,0.00,SCT,,0.15,WeatherDisplay:10.37,2013-03-07 03:28:00,
2013-03-06 19:29:00,51.2,38.2,30.05,ESE,123,0.0,0.0,61,0.00,SCT,,0.15,WeatherDisplay:10.37,2013-03-07 03:29:00,
2013-03-06 19:30:00,51.2,38.2,30.05,ESE,123,0.0,0.0,61,0.00,SCT,,0.15,WeatherDisplay:10.37,2013-03-07 03:30:00,
2013-03-06 19:35:00,51.2,38.2,30.05,ESE,123,0.0,0.0,61,0.00,SCT,,0.15,WeatherDisplay:10.37,2013-03-07 03:35:00,
2013-03-06 19:36:00,51.1,38.1,30.05,ESE,123,0.0,0.0,61,0.00,SCT,,0.15,WeatherDisplay:10.37,2013-03-07 03:36:00,
2013-03-06 19:40:00,51.1,38.1,30.05,ESE,123,0.0,0.0,61,0.00,SCT,,0.15,WeatherDisplay:10.37,2013-03-07 03:40:00,
2013-03-06 19:41:00,51.0,38.0,30.05,ESE,123,0.0,0.0,61,0.00,SCT,,0.15,WeatherDisplay:10.37,2013-03-07 03:41:00,
2013-03-06 19:45:00,50.9,38.0,30.05,ESE,123,0.0,0.0,61,0.00,SCT,,0.15,WeatherDisplay:10.37,2013-03-07 03:45:00,
2013-03-06 19:46:00,50.7,37.7,30.05,ESE,123,0.0,0.0,61,0.00,SCT,,0.15,WeatherDisplay:10.37,2013-03-07 03:46:00,
2013-03-06 19:50:00,50.6,37.6,30.05,ESE,123,0.0,0.0,61,0.00,SCT,,0.15,WeatherDisplay:10.37,2013-03-07 03:50:00,
2013-03-06 19:51:00,50.5,38.0,30.05,ESE,123,0.0,0.0,62,0.00,SCT,,0.15,WeatherDisplay:10.37,2013-03-07 03:51:00,
2013-03-06 19:55:00,50.3,37.8,30.05,ESE,123,0.0,0.0,62,0.00,SCT,,0.15,WeatherDisplay:10.37,2013-03-07 03:55:00,
2013-03-06 19:56:00,50.1,37.6,30.05,ESE,123,0.0,0.0,62,0.00,SCT,,0.15,WeatherDisplay:10.37,2013-03-07 03:56:00,
2013-03-06 19:57:00,50.1,37.6,30.05,ESE,123,0.0,0.0,62,0.00,SCT,,0.15,WeatherDisplay:10.37,2013-03-07 03:57:00,
2013-03-06 19:58:00,50.1,37.6,30.05,ESE,123,0.0,0.0,62,0.00,SCT,,0.15,WeatherDisplay:10.37,2013-03-07 03:58:00,
2013-03-06 20:00:00,49.9,37.8,30.05,ESE,123,1.2,1.2,63,0.00,SCT,,0.15,WeatherDisplay:10.37,2013-03-07 04:00:00,
2013-03-06 20:02:00,49.8,37.7,30.05,ESE,123,1.2,1.2,63,0.00,SCT,,0.15,WeatherDisplay:10.37,2013-03-07 04:02:00,
2013-03-06 20:05:00,49.8,37.7,30.05,ESE,123,0.0,1.0,63,0.00,SCT,,0.15,WeatherDisplay:10.37,2013-03-07 04:05:00,
2013-03-06 20:07:00,49.7,37.6,30.05,ESE,123,0.0,0.0,63,0.00,SCT,,0.15,WeatherDisplay:10.37,2013-03-07 04:07:00,
2013-03-06 20:10:00,49.5,37.4,30.05,ESE,123,0.0,0.0,63,0.00,SCT,,0.15,WeatherDisplay:10.37,2013-03-07 04:10:00,
2013-03-06 20:11:00,49.5,37.4,30.05,ESE,123,0.0,0.0,63,0.00,SCT,,0.15,WeatherDisplay:10.37,2013-03-07 04:11:00,
2013-03-06 20:12:00,49.5,37.4,30.05,ESE,123,0.0,0.0,63,0.00,SCT,,0.15,WeatherDisplay:10.37,2013-03-07 04:12:00,
2013-03-06 20:14:00,49.5,37.4,30.05,ESE,123,0.0,0.0,63,0.00,SCT,,0.15,WeatherDisplay:10.37,2013-03-07 04:14:00,
2013-03-06 20:16:00,49.5,37.8,30.05,ESE,123,0.0,0.0,64,0.00,SCT,,0.15,WeatherDisplay:10.37,2013-03-07 04:16:00,
2013-03-06 20:18:00,49.4,37.7,30.05,ESE,123,0.0,0.0,64,0.00,SCT,,0.15,WeatherDisplay:10.37,2013-03-07 04:18:00,
2013-03-06 20:19:00,49.3,37.6,30.05,ESE,123,0.0,0.0,64,0.00,SCT,,0.15,WeatherDisplay:10.37,2013-03-07 04:19:00,
2013-03-06 20:21:00,49.3,37.6,30.05,ESE,123,0.0,0.0,64,0.00,SCT,,0.15,WeatherDisplay:10.37,2013-03-07 04:21:00,
2013-03-06 20:23:00,49.3,37.2,30.05,ESE,123,0.0,0.0,63,0.00,SCT,,0.15,WeatherDisplay:10.37,2013-03-07 04:23:00,
2013-03-06 20:24:00,49.3,37.6,30.05,ESE,123,0.0,0.0,64,0.00,SCT,,0.15,WeatherDisplay:10.37,2013-03-07 04:24:00,
2013-03-06 20:26:00,49.3,37.6,30.05,ESE,123,0.0,0.0,64,0.00,SCT,,0.15,WeatherDisplay:10.37,2013-03-07 04:26:00,
2013-03-06 20:27:00,49.3,37.6,30.05,ESE,123,0.0,0.0,64,0.00,SCT,,0.15,WeatherDisplay:10.37,2013-03-07 04:27:00,
2013-03-06 20:28:00,49.3,37.6,30.05,ESE,123,0.0,0.0,64,0.00,SCT,,0.15,WeatherDisplay:10.37,2013-03-07 04:28:00,
2013-03-06 20:29:00,49.3,37.6,30.05,ESE,123,0.0,0.0,64,0.00,SCT,,0.15,WeatherDisplay:10.37,2013-03-07 04:29:00,
2013-03-06 20:31:00,49.2,37.5,30.05,ESE,123,0.0,0.0,64,0.00,SCT,,0.15,WeatherDisplay:10.37,2013-03-07 04:31:00,
2013-03-06 20:32:00,49.2,37.5,30.05,ESE,123,0.0,0.0,64,0.00,SCT,,0.15,WeatherDisplay:10.37,2013-03-07 04:32:00,
2013-03-06 20:34:00,49.1,37.4,30.05,ESE,123,0.0,0.0,64,0.00,SCT,,0.15,WeatherDisplay:10.37,2013-03-07 04:34:00,
2013-03-06 20:35:00,49.0,37.3,30.05,ESE,123,0.0,0.0,64,0.00,SCT,,0.15,WeatherDisplay:10.37,2013-03-07 04:35:00,
2013-03-06 20:37:00,49.0,37.3,30.05,ESE,123,0.0,0.0,64,0.00,SCT,,0.15,WeatherDisplay:10.37,2013-03-07 04:37:00,
2013-03-06 20:39:00,48.9,37.3,30.05,ESE,123,0.0,0.0,64,0.00,SCT,,0.15,WeatherDisplay:10.37,2013-03-07 04:39:00,
2013-03-06 20:40:00,48.9,37.3,30.05,ESE,123,0.0,0.0,64,0.00,SCT,,0.15,WeatherDisplay:10.37,2013-03-07 04:40:00,
2013-03-06 20:42:00,48.8,37.2,30.05,ESE,123,0.0,0.0,64,0.00,SCT,,0.15,WeatherDisplay:10.37,2013-03-07 04:42:00,
2013-03-06 20:44:00,48.7,37.1,30.05,ESE,123,0.0,0.0,64,0.00,SCT,,0.15,WeatherDisplay:10.37,2013-03-07 04:44:00,
2013-03-06 20:45:00,48.7,37.1,30.05,ESE,123,0.0,0.0,64,0.00,SCT,,0.15,WeatherDisplay:10.37,2013-03-07 04:45:00,
2013-03-06 20:48:00,48.6,37.4,30.05,ESE,123,0.0,0.0,65,0.00,SCT,,0.15,WeatherDisplay:10.37,2013-03-07 04:48:00,
2013-03-06 20:49:00,48.6,37.0,30.05,ESE,123,0.0,0.0,64,0.00,SCT,,0.15,WeatherDisplay:10.37,2013-03-07 04:49:00,
2013-03-06 20:50:00,48.5,36.9,30.05,ESE,123,0.0,0.0,64,0.00,SCT,,0.15,WeatherDisplay:10.37,2013-03-07 04:50:00,
2013-03-06 20:51:00,48.5,36.9,30.05,ESE,123,0.0,0.0,64,0.00,SCT,,0.15,WeatherDisplay:10.37,2013-03-07 04:51:00,
2013-03-06 20:54:00,48.5,37.3,30.05,ESE,123,0.0,0.0,65,0.00,SCT,,0.15,WeatherDisplay:10.37,2013-03-07 04:54:00,
2013-03-06 20:55:00,48.4,37.2,30.05,ESE,123,0.0,0.0,65,0.00,SCT,,0.15,WeatherDisplay:10.37,2013-03-07 04:55:00,
2013-03-06 20:56:00,48.4,36.8,30.05,ESE,123,0.0,0.0,64,0.00,SCT,,0.15,WeatherDisplay:10.37,2013-03-07 04:56:00,
2013-03-06 20:59:00,48.3,37.1,30.05,ESE,123,0.0,0.0,65,0.00,SCT,,0.15,WeatherDisplay:10.37,2013-03-07 04:59:00,
2013-03-06 21:00:00,48.3,37.1,30.05,ESE,123,0.0,0.0,65,0.00,SCT,,0.15,WeatherDisplay:10.37,2013-03-07 05:00:00,
2013-03-06 21:05:00,47.9,36.7,30.05,ESE,123,0.0,0.0,65,0.00,SCT,,0.15,WeatherDisplay:10.37,2013-03-07 05:05:00,
2013-03-06 21:07:00,47.9,36.7,30.04,ESE,123,0.0,0.0,65,0.00,SCT,,0.15,WeatherDisplay:10.37,2013-03-07 05:07:00,
2013-03-06 21:08:00,47.9,36.7,30.05,ESE,123,0.0,0.0,65,0.00,SCT,,0.15,WeatherDisplay:10.37,2013-03-07 05:08:00,
2013-03-06 21:10:00,47.9,36.7,30.04,ESE,123,0.0,0.0,65,0.00,SCT,,0.15,WeatherDisplay:10.37,2013-03-07 05:10:00,
2013-03-06 21:11:00,47.8,36.6,30.04,ESE,123,0.0,0.0,65,0.00,SCT,,0.15,WeatherDisplay:10.37,2013-03-07 05:11:00,
2013-03-06 21:12:00,47.8,36.6,30.05,ESE,123,0.0,0.0,65,0.00,SCT,,0.15,WeatherDisplay:10.37,2013-03-07 05:12:00,
2013-03-06 21:13:00,47.8,36.6,30.04,ESE,123,0.0,0.0,65,0.00,SCT,,0.15,WeatherDisplay:10.37,2013-03-07 05:13:00,
2013-03-06 21:16:00,47.7,36.5,30.04,ESE,123,0.0,0.0,65,0.00,SCT,,0.15,WeatherDisplay:10.37,2013-03-07 05:16:00,
2013-03-06 21:17:00,47.7,36.9,30.04,ESE,123,0.0,0.0,66,0.00,SCT,,0.15,WeatherDisplay:10.37,2013-03-07 05:17:00,
2013-03-06 21:19:00,47.7,36.5,30.04,ESE,123,0.0,0.0,65,0.00,SCT,,0.15,WeatherDisplay:10.37,2013-03-07 05:19:00,
2013-03-06 21:20:00,47.6,36.8,30.05,ESE,123,0.0,0.0,66,0.00,SCT,,0.15,WeatherDisplay:10.37,2013-03-07 05:20:00,
2013-03-06 21:21:00,47.6,36.8,30.04,ESE,123,0.0,0.0,66,0.00,SCT,,0.15,WeatherDisplay:10.37,2013-03-07 05:21:00,
2013-03-06 21:22:00,47.6,36.8,30.04,ESE,123,0.0,0.0,66,0.00,SCT,,0.15,WeatherDisplay:10.37,2013-03-07 05:22:00,
2013-03-06 21:24:00,47.5,36.7,30.05,ESE,123,0.0,0.0,66,0.00,SCT,,0.15,WeatherDisplay:10.37,2013-03-07 05:24:00,
2013-03-06 21:26:00,47.5,36.7,30.04,ESE,123,0.0,0.0,66,0.00,SCT,,0.15,WeatherDisplay:10.37,2013-03-07 05:26:00,
2013-03-06 21:27:00,47.4,36.6,30.04,ESE,123,0.0,0.0,66,0.00,SCT,,0.15,WeatherDisplay:10.37,2013-03-07 05:27:00,
2013-03-06 21:30:00,47.3,36.5,30.04,ESE,123,0.0,0.0,66,0.00,SCT,,0.15,WeatherDisplay:10.37,2013-03-07 05:30:00,
2013-03-06 21:31:00,47.2,36.8,30.05,ESE,123,0.0,0.0,67,0.00,SCT,,0.15,WeatherDisplay:10.37,2013-03-07 05:31:00,
2013-03-06 21:32:00,47.2,36.8,30.04,ESE,123,0.0,0.0,67,0.00,SCT,,0.15,WeatherDisplay:10.37,2013-03-07 05:32:00,
2013-03-06 21:34:00,47.2,36.8,30.05,ESE,123,0.0,0.0,67,0.00,SCT,,0.15,WeatherDisplay:10.37,2013-03-07 05:34:00,
2013-03-06 21:35:00,47.1,36.7,30.04,ESE,123,0.0,0.0,67,0.00,SCT,,0.15,WeatherDisplay:10.37,2013-03-07 05:35:00,
2013-03-06 21:36:00,47.1,36.7,30.04,ESE,123,0.0,0.0,67,0.00,SCT,,0.15,WeatherDisplay:10.37,2013-03-07 05:36:00,
2013-03-06 21:38:00,47.1,36.7,30.04,ESE,123,0.0,0.0,67,0.00,SCT,,0.15,WeatherDisplay:10.37,2013-03-07 05:38:00,
2013-03-06 21:40:00,47.1,36.7,30.05,ESE,123,0.0,0.0,67,0.00,SCT,,0.15,WeatherDisplay:10.37,2013-03-07 05:40:00,
2013-03-06 21:41:00,47.1,36.7,30.05,ESE,123,0.0,0.0,67,0.00,SCT,,0.15,WeatherDisplay:10.37,2013-03-07 05:41:00,
2013-03-06 21:45:00,47.0,36.6,30.05,ESE,123,0.0,0.0,67,0.00,SCT,,0.15,WeatherDisplay:10.37,2013-03-07 05:45:00,
2013-03-06 21:46:00,47.0,36.6,30.05,ESE,123,0.0,0.0,67,0.00,SCT,,0.15,WeatherDisplay:10.37,2013-03-07 05:46:00,
2013-03-06 21:47:00,47.0,36.6,30.04,ESE,123,0.0,0.0,67,0.00,SCT,,0.15,WeatherDisplay:10.37,2013-03-07 05:47:00,
2013-03-06 21:51:00,46.9,36.5,30.05,ESE,123,0.0,0.0,67,0.00,SCT,,0.15,WeatherDisplay:10.37,2013-03-07 05:51:00,
2013-03-06 21:52:00,46.9,36.9,30.05,ESE,123,0.0,0.0,68,0.00,SCT,,0.15,WeatherDisplay:10.37,2013-03-07 05:52:00,
2013-03-06 21:53:00,46.9,36.5,30.04,ESE,123,0.0,0.0,67,0.00,SCT,,0.15,WeatherDisplay:10.37,2013-03-07 05:53:00,
2013-03-06 21:54:00,46.8,36.4,30.04,ESE,123,0.0,0.0,67,0.00,SCT,,0.15,WeatherDisplay:10.37,2013-03-07 05:54:00,
2013-03-06 21:56:00,46.8,36.8,30.04,ESE,123,0.0,0.0,68,0.00,SCT,,0.15,WeatherDisplay:10.37,2013-03-07 05:56:00,
2013-03-06 21:58:00,46.7,36.7,30.04,ESE,123,0.0,0.0,68,0.00,SCT,,0.15,WeatherDisplay:10.37,2013-03-07 05:58:00,
2013-03-06 22:00:00,46.7,36.7,30.04,ESE,123,0.0,0.0,68,0.00,SCT,,0.15,WeatherDisplay:10.37,2013-03-07 06:00:00,
2013-03-06 22:01:00,46.7,36.7,30.04,ESE,123,0.0,0.0,68,0.00,SCT,,0.15,WeatherDisplay:10.37,2013-03-07 06:01:00,
2013-03-06 22:02:00,46.7,36.7,30.04,ESE,123,0.0,0.0,68,0.00,SCT,,0.15,WeatherDisplay:10.37,2013-03-07 06:02:00,
2013-03-06 22:03:00,46.7,36.7,30.04,ESE,123,0.0,0.0,68,0.00,SCT,,0.15,WeatherDisplay:10.37,2013-03-07 06:03:00,
2013-03-06 22:05:00,46.6,36.6,30.04,ESE,123,0.0,0.0,68,0.00,SCT,,0.15,WeatherDisplay:10.37,2013-03-07 06:05:00,
2013-03-06 22:06:00,46.5,36.5,30.04,ESE,123,0.0,0.0,68,0.00,SCT,,0.15,WeatherDisplay:10.37,2013-03-07 06:06:00,
2013-03-06 22:07:00,46.5,36.5,30.04,ESE,123,0.0,0.0,68,0.00,SCT,,0.15,WeatherDisplay:10.37,2013-03-07 06:07:00,
2013-03-06 22:08:00,46.5,36.5,30.04,ESE,123,0.0,0.0,68,0.00,SCT,,0.15,WeatherDisplay:10.37,2013-03-07 06:08:00,
2013-03-06 22:10:00,46.4,36.4,30.04,ESE,123,0.0,0.0,68,0.00,SCT,,0.15,WeatherDisplay:10.37,2013-03-07 06:10:00,
2013-03-06 22:11:00,46.3,36.3,30.03,ESE,123,0.0,0.0,68,0.00,SCT,,0.15,WeatherDisplay:10.37,2013-03-07 06:11:00,
2013-03-06 22:12:00,46.3,36.3,30.04,ESE,123,0.0,0.0,68,0.00,SCT,,0.15,WeatherDisplay:10.37,2013-03-07 06:12:00,
2013-03-06 22:13:00,46.3,36.3,30.04,ESE,123,0.0,0.0,68,0.00,SCT,,0.15,WeatherDisplay:10.37,2013-03-07 06:13:00,
2013-03-06 22:15:00,46.2,36.2,30.04,ESE,123,0.0,0.0,68,0.00,SCT,,0.15,WeatherDisplay:10.37,2013-03-07 06:15:00,
2013-03-06 22:17:00,46.2,36.2,30.04,ESE,123,0.0,0.0,68,0.00,SCT,,0.15,WeatherDisplay:10.37,2013-03-07 06:17:00,
2013-03-06 22:18:00,46.2,36.2,30.04,ESE,123,0.0,0.0,68,0.00,SCT,,0.15,WeatherDisplay:10.37,2013-03-07 06:18:00,
2013-03-06 22:21:00,46.1,36.5,30.04,ESE,123,0.0,0.0,69,0.00,SCT,,0.15,WeatherDisplay:10.37,2013-03-07 06:21:00,
2013-03-06 22:22:00,46.0,36.4,30.04,ESE,123,0.0,0.0,69,0.00,SCT,,0.15,WeatherDisplay:10.37,2013-03-07 06:22:00,
2013-03-06 22:23:00,46.0,36.4,30.03,ESE,123,0.0,0.0,69,0.00,SCT,,0.15,WeatherDisplay:10.37,2013-03-07 06:23:00,
2013-03-06 22:24:00,45.9,36.3,30.03,ESE,123,0.0,0.0,69,0.00,SCT,,0.15,WeatherDisplay:10.37,2013-03-07 06:24:00,
2013-03-06 22:26:00,45.9,35.9,30.04,ESE,123,0.0,0.0,68,0.00,SCT,,0.15,WeatherDisplay:10.37,2013-03-07 06:26:00,
2013-03-06 22:27:00,45.8,36.2,30.03,ESE,123,0.0,0.0,69,0.00,SCT,,0.15,WeatherDisplay:10.37,2013-03-07 06:27:00,
2013-03-06 22:28:00,45.8,36.2,30.04,ESE,123,0.0,0.0,69,0.00,SCT,,0.15,WeatherDisplay:10.37,2013-03-07 06:28:00,
2013-03-06 22:29:00,45.8,36.2,30.03,ESE,123,0.0,0.0,69,0.00,SCT,,0.15,WeatherDisplay:10.37,2013-03-07 06:29:00,
2013-03-06 22:32:00,45.7,36.1,30.03,ESE,123,0.0,0.0,69,0.00,SCT,,0.15,WeatherDisplay:10.37,2013-03-07 06:32:00,
2013-03-06 22:34:00,45.7,36.1,30.03,ESE,123,0.0,0.0,69,0.00,SCT,,0.15,WeatherDisplay:10.37,2013-03-07 06:34:00,
2013-03-06 22:35:00,45.7,36.1,30.03,ESE,123,0.0,0.0,69,0.00,SCT,,0.15,WeatherDisplay:10.37,2013-03-07 06:35:00,
2013-03-06 22:38:00,45.5,35.9,30.03,ESE,123,0.0,0.0,69,0.00,SCT,,0.15,WeatherDisplay:10.37,2013-03-07 06:38:00,
2013-03-06 22:39:00,45.5,35.9,30.03,ESE,123,0.0,0.0,69,0.00,SCT,,0.15,WeatherDisplay:10.37,2013-03-07 06:39:00,
2013-03-06 22:40:00,45.5,35.9,30.03,ESE,123,0.0,0.0,69,0.00,SCT,,0.15,WeatherDisplay:10.37,2013-03-07 06:40:00,
2013-03-06 22:41:00,45.4,35.8,30.03,ESE,123,0.0,0.0,69,0.00,SCT,,0.15,WeatherDisplay:10.37,2013-03-07 06:41:00,
2013-03-06 22:44:00,45.4,35.8,30.03,ESE,123,0.0,0.0,69,0.00,SCT,,0.15,WeatherDisplay:10.37,2013-03-07 06:44:00,
2013-03-06 22:45:00,45.4,35.8,30.03,ESE,123,0.0,0.0,69,0.00,SCT,,0.15,WeatherDisplay:10.37,2013-03-07 06:45:00,
2013-03-06 22:49:00,45.2,35.6,30.03,ESE,123,0.0,0.0,69,0.00,SCT,,0.15,WeatherDisplay:10.37,2013-03-07 06:49:00,
2013-03-06 22:50:00,45.2,35.7,30.03,ESE,123,0.0,0.0,69,0.00,SCT,,0.15,WeatherDisplay:10.37,2013-03-07 06:50:00,
2013-03-06 22:55:00,45.0,35.4,30.03,ESE,123,0.0,0.0,69,0.00,SCT,,0.15,WeatherDisplay:10.37,2013-03-07 06:55:00,
2013-03-06 22:56:00,45.0,35.4,30.03,ESE,123,0.0,0.0,69,0.00,SCT,,0.15,WeatherDisplay:10.37,2013-03-07 06:56:00,
2013-03-06 23:00:00,44.8,35.6,30.03,ESE,123,1.2,0.0,70,0.00,SCT,,0.15,WeatherDisplay:10.37,2013-03-07 07:00:00,
2013-03-06 23:01:00,44.8,35.6,30.03,ESE,123,1.2,0.0,70,0.00,SCT,,0.15,WeatherDisplay:10.37,2013-03-07 07:01:00,
2013-03-06 23:06:00,44.8,35.6,30.03,ESE,123,0.0,0.0,70,0.00,SCT,,0.15,WeatherDisplay:10.37,2013-03-07 07:06:00,
2013-03-06 23:07:00,44.8,35.6,30.03,ESE,123,0.0,0.0,70,0.00,SCT,,0.15,WeatherDisplay:10.37,2013-03-07 07:07:00,
2013-03-06 23:11:00,44.8,35.6,30.03,ESE,123,0.0,0.0,70,0.00,SCT,,0.15,WeatherDisplay:10.37,2013-03-07 07:11:00,
2013-03-06 23:12:00,44.8,35.6,30.03,ESE,123,0.0,0.0,70,0.00,SCT,,0.15,WeatherDisplay:10.37,2013-03-07 07:12:00,
2013-03-06 23:15:00,44.7,35.5,30.02,ESE,123,0.0,0.0,70,0.00,SCT,,0.15,WeatherDisplay:10.37,2013-03-07 07:15:00,
2013-03-06 23:17:00,44.7,35.5,30.02,ESE,123,0.0,0.0,70,0.00,SCT,,0.15,WeatherDisplay:10.37,2013-03-07 07:17:00,
2013-03-06 23:20:00,44.5,35.6,30.03,ESE,123,0.0,0.0,71,0.00,SCT,,0.15,WeatherDisplay:10.37,2013-03-07 07:20:00,
2013-03-06 23:22:00,44.4,35.6,30.02,ESE,123,0.0,0.0,71,0.00,SCT,,0.15,WeatherDisplay:10.37,2013-03-07 07:22:00,
2013-03-06 23:24:00,44.4,35.6,30.02,ESE,123,0.0,0.0,71,0.00,SCT,,0.15,WeatherDisplay:10.37,2013-03-07 07:24:00,
2013-03-06 23:25:00,44.4,35.6,30.02,ESE,123,0.0,0.0,71,0.00,SCT,,0.15,WeatherDisplay:10.37,2013-03-07 07:25:00,
2013-03-06 23:26:00,44.3,35.5,30.02,ESE,123,0.0,0.0,71,0.00,SCT,,0.15,WeatherDisplay:10.37,2013-03-07 07:26:00,
2013-03-06 23:28:00,44.3,35.5,30.03,ESE,123,0.0,0.0,71,0.00,SCT,,0.15,WeatherDisplay:10.37,2013-03-07 07:28:00,
2013-03-06 23:30:00,44.3,35.5,30.03,ESE,123,0.0,0.0,71,0.00,SCT,,0.15,WeatherDisplay:10.37,2013-03-07 07:30:00,
2013-03-06 23:31:00,44.2,35.4,30.03,ESE,123,0.0,0.0,71,0.00,SCT,,0.15,WeatherDisplay:10.37,2013-03-07 07:31:00,
2013-03-06 23:34:00,44.1,35.3,30.03,ESE,123,0.0,0.0,71,0.00,SCT,,0.15,WeatherDisplay:10.37,2013-03-07 07:34:00,
2013-03-06 23:35:00,44.0,35.2,30.03,ESE,123,0.0,0.0,71,0.00,SCT,,0.15,WeatherDisplay:10.37,2013-03-07 07:35:00,
2013-03-06 23:37:00,43.9,35.1,30.02,ESE,123,0.0,0.0,71,0.00,SCT,,0.15,WeatherDisplay:10.37,2013-03-07 07:37:00,
2013-03-06 23:40:00,43.8,35.0,30.03,ESE,123,0.0,0.0,71,0.00,SCT,,0.15,WeatherDisplay:10.37,2013-03-07 07:40:00,
2013-03-06 23:45:00,43.7,34.9,30.02,ESE,123,0.0,0.0,71,0.00,SCT,,0.15,WeatherDisplay:10.37,2013-03-07 07:45:00,
2013-03-06 23:46:00,43.6,34.8,30.03,ESE,123,0.0,0.0,71,0.00,SCT,,0.15,WeatherDisplay:10.37,2013-03-07 07:46:00,
2013-03-06 23:50:00,43.5,34.7,30.02,ESE,123,0.0,0.0,71,0.00,SCT,,0.15,WeatherDisplay:10.37,2013-03-07 07:50:00,
2013-03-06 23:55:00,43.5,34.7,30.02,ESE,123,0.0,0.0,71,0.00,SCT,,0.15,WeatherDisplay:10.37,2013-03-07 07:55:00,
2013-03-06 23:56:00,43.5,34.7,30.02,ESE,123,0.0,0.0,71,0.00,SCT,,0.15,WeatherDisplay:10.37,2013-03-07 07:56:00,